Observation data for Estelline on 01/17/2021      Previous  Date  Next       Current Mesonet Observations  Soil Data  Daily Summary Page  Observations in Plain Language
KES1 170600Z 26006KT 05/M06 A3008 RMK A01 T00481063  RH  044%=      5-min Rain = 0
KES1 170601Z 26007KT 05/M06 A3008 RMK A01 T00481063  RH  044%=      5-min Rain = 0
KES1 170602Z 26006KT 05/M06 A3008 RMK A01 T00471063  RH  045%=      5-min Rain = 0
KES1 170603Z 27006KT 05/M06 A3008 RMK A01 T00461062  RH  045%=      5-min Rain = 0
KES1 170604Z 27006KT 05/M06 A3008 RMK A01 T00461061  RH  046%=      5-min Rain = 0
KES1 170605Z 26005KT 05/M06 A3008 RMK A01 T00461061  RH  046%=      5-min Rain = 0
KES1 170606Z 26005KT 05/M06 A3008 RMK A01 T00461061  RH  046%=      5-min Rain = 0
KES1 170607Z 26005KT 05/M06 A3008 RMK A01 T00461061  RH  046%=      5-min Rain = 0
KES1 170608Z 26003KT 05/M06 A3008 RMK A01 T00451062  RH  046%=      5-min Rain = 0
KES1 170609Z 25003KT 05/M06 A3009 RMK A01 T00451062  RH  046%=      5-min Rain = 0
KES1 170610Z 25003KT 05/M06 A3009 RMK A01 T00451063  RH  045%=      5-min Rain = 0
KES1 170611Z 28002KT 05/M06 A3009 RMK A01 T00451063  RH  045%=      5-min Rain = 0
KES1 170612Z 26001KT 05/M06 A3009 RMK A01 T00451063  RH  046%=      5-min Rain = 0
KES1 170613Z 26000KT 04/M06 A3009 RMK A01 T00441063  RH  046%=      5-min Rain = 0
KES1 170614Z 30001KT 04/M06 A3009 RMK A01 T00441063  RH  046%=      5-min Rain = 0
KES1 170615Z 30001KT 04/M06 A3009 RMK A01 T00431063  RH  046%=      5-min Rain = 0
KES1 170616Z 26001KT 04/M06 A3009 RMK A01 T00431063  RH  046%=      5-min Rain = 0
KES1 170617Z 29002KT 04/M06 A3009 RMK A01 T00431063  RH  046%=      5-min Rain = 0
KES1 170618Z 27003KT 04/M06 A3009 RMK A01 T00431064  RH  046%=      5-min Rain = 0
KES1 170619Z 28001KT 04/M06 A3009 RMK A01 T00431063  RH  046%=      5-min Rain = 0
KES1 170620Z 27001KT 04/M06 A3009 RMK A01 T00431063  RH  046%=      5-min Rain = 0
KES1 170621Z 28003KT 04/M06 A3009 RMK A01 T00431063  RH  046%=      5-min Rain = 0
KES1 170622Z 27002KT 04/M06 A3009 RMK A01 T00441063  RH  046%=      5-min Rain = 0
KES1 170623Z 27003KT 04/M06 A3009 RMK A01 T00431064  RH  046%=      5-min Rain = 0
KES1 170624Z 27002KT 04/M06 A3009 RMK A01 T00431064  RH  046%=      5-min Rain = 0
KES1 170625Z 28003KT 04/M06 A3009 RMK A01 T00421064  RH  046%=      5-min Rain = 0
KES1 170626Z 27003KT 04/M07 A3009 RMK A01 T00411065  RH  046%=      5-min Rain = 0
KES1 170627Z 28003KT 04/M07 A3009 RMK A01 T00401065  RH  046%=      5-min Rain = 0
KES1 170628Z 27004KT 04/M07 A3009 RMK A01 T00391065  RH  047%=      5-min Rain = 0
KES1 170629Z 27003KT 04/M07 A3009 RMK A01 T00381065  RH  047%=      5-min Rain = 0
KES1 170630Z 27004KT 04/M07 A3009 RMK A01 T00371065  RH  048%=      5-min Rain = 0
KES1 170631Z 27003KT 04/M07 A3009 RMK A01 T00361065  RH  048%=      5-min Rain = 0
KES1 170632Z 28003KT 04/M07 A3009 RMK A01 T00351065  RH  048%=      5-min Rain = 0
KES1 170633Z 28004KT 03/M07 A3009 RMK A01 T00341065  RH  048%=      5-min Rain = 0
KES1 170634Z 28004KT 03/M07 A3009 RMK A01 T00341065  RH  048%=      5-min Rain = 0
KES1 170635Z 27003KT 03/M06 A3009 RMK A01 T00341064  RH  048%=      5-min Rain = 0
KES1 170636Z 28004KT 03/M07 A3009 RMK A01 T00331065  RH  049%=      5-min Rain = 0
KES1 170637Z 28003KT 03/M07 A3009 RMK A01 T00331065  RH  049%=      5-min Rain = 0
KES1 170638Z 27004KT 03/M06 A3009 RMK A01 T00321064  RH  049%=      5-min Rain = 0
KES1 170639Z 27004KT 03/M06 A3009 RMK A01 T00321063  RH  050%=      5-min Rain = 0
KES1 170640Z 27003KT 03/M06 A3009 RMK A01 T00321063  RH  050%=      5-min Rain = 0
KES1 170641Z 27003KT 03/M06 A3009 RMK A01 T00321062  RH  050%=      5-min Rain = 0
KES1 170642Z 27003KT 03/M06 A3009 RMK A01 T00321062  RH  050%=      5-min Rain = 0
KES1 170643Z 26004KT 03/M06 A3009 RMK A01 T00321062  RH  050%=      5-min Rain = 0
KES1 170644Z 25003KT 03/M06 A3009 RMK A01 T00311061  RH  051%=      5-min Rain = 0
KES1 170645Z 26005KT 03/M06 A3009 RMK A01 T00311061  RH  051%=      5-min Rain = 0
KES1 170646Z 26004KT 03/M06 A3009 RMK A01 T00301060  RH  052%=      5-min Rain = 0
KES1 170647Z 26004KT 03/M06 A3009 RMK A01 T00291059  RH  052%=      5-min Rain = 0
KES1 170648Z 26004KT 03/M06 A3009 RMK A01 T00291059  RH  053%=      5-min Rain = 0
KES1 170649Z 26004KT 03/M06 A3009 RMK A01 T00291058  RH  053%=      5-min Rain = 0
KES1 170650Z 25005KT 03/M06 A3009 RMK A01 T00291057  RH  053%=      5-min Rain = 0
KES1 170651Z 26005KT 03/M06 A3009 RMK A01 T00281056  RH  054%=      5-min Rain = 0
KES1 170652Z 26004KT 03/M06 A3009 RMK A01 T00271055  RH  055%=      5-min Rain = 0
KES1 170653Z 26004KT 03/M05 A3009 RMK A01 T00271054  RH  055%=      5-min Rain = 0
KES1 170654Z 26004KT 03/M05 A3009 RMK A01 T00271053  RH  055%=      5-min Rain = 0
KES1 170655Z 26004KT 03/M05 A3009 RMK A01 T00271053  RH  056%=      5-min Rain = 0
KES1 170656Z 27004KT 03/M05 A3009 RMK A01 T00271052  RH  056%=      5-min Rain = 0
KES1 170657Z 27003KT 03/M05 A3009 RMK A01 T00281052  RH  056%=      5-min Rain = 0
KES1 170658Z 27003KT 03/M05 A3009 RMK A01 T00271052  RH  056%=      5-min Rain = 0
KES1 170659Z 27003KT 03/M05 A3009 RMK A01 T00271052  RH  056%=      5-min Rain = 0
KES1 170700Z 28003KT 03/M05 A3009 RMK A01 T00271051  RH  056%=      5-min Rain = 0
KES1 170701Z 28003KT 03/M05 A3009 RMK A01 T00271051  RH  056%=      5-min Rain = 0
KES1 170702Z 28003KT 03/M05 A3009 RMK A01 T00271052  RH  056%=      5-min Rain = 0
KES1 170703Z 28003KT 03/M05 A3009 RMK A01 T00281050  RH  057%=      5-min Rain = 0
KES1 170704Z 28003KT 03/M05 A3009 RMK A01 T00281050  RH  057%=      5-min Rain = 0
KES1 170705Z 28003KT 03/M05 A301 RMK A01 T00281049  RH  057%=      5-min Rain = 0
KES1 170706Z 29002KT 03/M05 A301 RMK A01 T00281050  RH  057%=      5-min Rain = 0
KES1 170707Z 29002KT 03/M05 A301 RMK A01 T00271050  RH  057%=      5-min Rain = 0
KES1 170708Z 32002KT 03/M05 A301 RMK A01 T00271048  RH  057%=      5-min Rain = 0
KES1 170709Z 31002KT 03/M05 A301 RMK A01 T00271049  RH  057%=      5-min Rain = 0
KES1 170710Z 29002KT 03/M05 A301 RMK A01 T00271048  RH  058%=      5-min Rain = 0
KES1 170711Z 28003KT 03/M05 A301 RMK A01 T00261048  RH  058%=      5-min Rain = 0
KES1 170712Z 27002KT 03/M05 A301 RMK A01 T00261047  RH  059%=      5-min Rain = 0
KES1 170713Z 28002KT 03/M05 A301 RMK A01 T00261046  RH  059%=      5-min Rain = 0
KES1 170714Z 28003KT 03/M05 A301 RMK A01 T00261046  RH  059%=      5-min Rain = 0
KES1 170715Z 27004KT 03/M05 A301 RMK A01 T00261046  RH  059%=      5-min Rain = 0
KES1 170716Z 27004KT 03/M05 A301 RMK A01 T00261045  RH  059%=      5-min Rain = 0
KES1 170717Z 26003KT 03/M05 A301 RMK A01 T00261045  RH  060%=      5-min Rain = 0
KES1 170718Z 27003KT 03/M05 A301 RMK A01 T00261045  RH  060%=      5-min Rain = 0
KES1 170719Z 26004KT 03/M04 A301 RMK A01 T00261044  RH  060%=      5-min Rain = 0
KES1 170720Z 27004KT 03/M04 A301 RMK A01 T00251043  RH  060%=      5-min Rain = 0
KES1 170721Z 26003KT 03/M04 A301 RMK A01 T00251043  RH  061%=      5-min Rain = 0
KES1 170722Z 27004KT 03/M04 A301 RMK A01 T00251043  RH  061%=      5-min Rain = 0
KES1 170723Z 27004KT 03/M04 A301 RMK A01 T00251042  RH  061%=      5-min Rain = 0
KES1 170724Z 28004KT 03/M04 A301 RMK A01 T00251042  RH  061%=      5-min Rain = 0
KES1 170725Z 28003KT 03/M04 A301 RMK A01 T00251042  RH  061%=      5-min Rain = 0
KES1 170726Z 27003KT 03/M04 A301 RMK A01 T00261041  RH  061%=      5-min Rain = 0
KES1 170727Z 27004KT 03/M04 A301 RMK A01 T00251041  RH  062%=      5-min Rain = 0
KES1 170728Z 26003KT 03/M04 A301 RMK A01 T00251041  RH  062%=      5-min Rain = 0
KES1 170729Z 26003KT 03/M04 A301 RMK A01 T00251040  RH  062%=      5-min Rain = 0
KES1 170730Z 28003KT 03/M04 A301 RMK A01 T00251040  RH  062%=      5-min Rain = 0
KES1 170731Z 25003KT 03/M04 A301 RMK A01 T00261039  RH  063%=      5-min Rain = 0
KES1 170732Z 26002KT 03/M04 A301 RMK A01 T00271039  RH  062%=      5-min Rain = 0
KES1 170733Z 26002KT 03/M04 A301 RMK A01 T00271039  RH  062%=      5-min Rain = 0
KES1 170734Z 25002KT 03/M04 A301 RMK A01 T00271039  RH  062%=      5-min Rain = 0
KES1 170735Z 24002KT 03/M04 A301 RMK A01 T00271039  RH  062%=      5-min Rain = 0
KES1 170736Z 24002KT 03/M04 A301 RMK A01 T00261039  RH  062%=      5-min Rain = 0
KES1 170737Z 23002KT 03/M04 A301 RMK A01 T00261039  RH  062%=      5-min Rain = 0
KES1 170738Z 24003KT 03/M04 A301 RMK A01 T00261040  RH  062%=      5-min Rain = 0
KES1 170739Z 24003KT 03/M04 A301 RMK A01 T00261040  RH  062%=      5-min Rain = 0
KES1 170740Z 24003KT 03/M04 A301 RMK A01 T00251040  RH  062%=      5-min Rain = 0
KES1 170741Z 24002KT 03/M04 A301 RMK A01 T00251040  RH  062%=      5-min Rain = 0
KES1 170742Z 24003KT 02/M04 A301 RMK A01 T00241040  RH  062%=      5-min Rain = 0
KES1 170743Z 25002KT 02/M04 A301 RMK A01 T00241040  RH  063%=      5-min Rain = 0
KES1 170744Z 24003KT 03/M04 A301 RMK A01 T00251039  RH  063%=      5-min Rain = 0
KES1 170745Z 23003KT 03/M04 A301 RMK A01 T00271039  RH  062%=      5-min Rain = 0
KES1 170746Z 21003KT 03/M04 A301 RMK A01 T00271039  RH  062%=      5-min Rain = 0
KES1 170747Z 22003KT 03/M04 A301 RMK A01 T00271039  RH  062%=      5-min Rain = 0
KES1 170748Z 25003KT 03/M04 A301 RMK A01 T00271039  RH  062%=      5-min Rain = 0
KES1 170749Z 26003KT 03/M04 A301 RMK A01 T00271039  RH  062%=      5-min Rain = 0
KES1 170750Z 27003KT 03/M04 A301 RMK A01 T00301037  RH  061%=      5-min Rain = 0
KES1 170751Z 26002KT 03/M04 A301 RMK A01 T00321038  RH  060%=      5-min Rain = 0
KES1 170752Z 26003KT 03/M04 A301 RMK A01 T00331039  RH  059%=      5-min Rain = 0
KES1 170753Z 27002KT 03/M04 A301 RMK A01 T00331039  RH  060%=      5-min Rain = 0
KES1 170754Z 29003KT 03/M04 A301 RMK A01 T00331038  RH  059%=      5-min Rain = 0
KES1 170755Z 29002KT 04/M04 A301 RMK A01 T00351037  RH  059%=      5-min Rain = 0
KES1 170756Z 27003KT 04/M04 A301 RMK A01 T00361038  RH  058%=      5-min Rain = 0
KES1 170757Z 28004KT 04/M04 A301 RMK A01 T00351039  RH  058%=      5-min Rain = 0
KES1 170758Z 30004KT 04/M04 A301 RMK A01 T00351038  RH  059%=      5-min Rain = 0
KES1 170759Z 30004KT 04/M04 A301 RMK A01 T00361038  RH  059%=      5-min Rain = 0
KES1 170800Z 31003KT 04/M04 A301 RMK A01 T00351038  RH  059%=      5-min Rain = 0
KES1 170801Z 31005KT 04/M04 A301 RMK A01 T00351038  RH  059%=      5-min Rain = 0
KES1 170802Z 30004KT 03/M04 A301 RMK A01 T00341039  RH  059%=      5-min Rain = 0
KES1 170803Z 30005KT 03/M04 A3011 RMK A01 T00341038  RH  059%=      5-min Rain = 0
KES1 170804Z 29004KT 03/M04 A3011 RMK A01 T00341038  RH  059%=      5-min Rain = 0
KES1 170805Z 31004KT 03/M04 A3011 RMK A01 T00331038  RH  060%=      5-min Rain = 0
KES1 170806Z 31005KT 03/M04 A3011 RMK A01 T00321038  RH  060%=      5-min Rain = 0
KES1 170807Z 31003KT 03/M04 A3011 RMK A01 T00331038  RH  060%=      5-min Rain = 0
KES1 170808Z 30004KT 03/M04 A3011 RMK A01 T00331038  RH  059%=      5-min Rain = 0
KES1 170809Z 29004KT 03/M04 A3011 RMK A01 T00341038  RH  059%=      5-min Rain = 0
KES1 170810Z 30004KT 03/M04 A3011 RMK A01 T00331038  RH  059%=      5-min Rain = 0
KES1 170811Z 30004KT 03/M04 A3011 RMK A01 T00331038  RH  059%=      5-min Rain = 0
KES1 170812Z 29004KT 03/M04 A3011 RMK A01 T00331038  RH  059%=      5-min Rain = 0
KES1 170813Z 30003KT 03/M04 A3011 RMK A01 T00331038  RH  059%=      5-min Rain = 0
KES1 170814Z 29004KT 03/M04 A3011 RMK A01 T00331039  RH  059%=      5-min Rain = 0
KES1 170815Z 29005KT 03/M04 A3011 RMK A01 T00331039  RH  059%=      5-min Rain = 0
KES1 170816Z 28004KT 03/M04 A3011 RMK A01 T00331038  RH  059%=      5-min Rain = 0
KES1 170817Z 29004KT 03/M04 A3011 RMK A01 T00331039  RH  059%=      5-min Rain = 0
KES1 170818Z 29004KT 03/M04 A3011 RMK A01 T00321039  RH  060%=      5-min Rain = 0
KES1 170819Z 28004KT 03/M04 A3011 RMK A01 T00311039  RH  060%=      5-min Rain = 0
KES1 170820Z 28004KT 03/M04 A3011 RMK A01 T00311039  RH  060%=      5-min Rain = 0
KES1 170821Z 28004KT 03/M04 A3011 RMK A01 T00301040  RH  060%=      5-min Rain = 0
KES1 170822Z 28004KT 03/M04 A3012 RMK A01 T00301039  RH  060%=      5-min Rain = 0
KES1 170823Z 28004KT 03/M04 A3012 RMK A01 T00301039  RH  060%=      5-min Rain = 0
KES1 170824Z 28004KT 03/M04 A3012 RMK A01 T00291039  RH  061%=      5-min Rain = 0
KES1 170825Z 29004KT 03/M04 A3012 RMK A01 T00291039  RH  061%=      5-min Rain = 0
KES1 170826Z 28004KT 03/M04 A3012 RMK A01 T00291040  RH  060%=      5-min Rain = 0
KES1 170827Z 28003KT 03/M04 A3012 RMK A01 T00291040  RH  060%=      5-min Rain = 0
KES1 170828Z 29004KT 03/M04 A3012 RMK A01 T00291040  RH  061%=      5-min Rain = 0
KES1 170829Z 28004KT 03/M04 A3012 RMK A01 T00291040  RH  061%=      5-min Rain = 0
KES1 170830Z 28004KT 03/M04 A3012 RMK A01 T00291040  RH  061%=      5-min Rain = 0
KES1 170831Z 28003KT 03/M04 A3012 RMK A01 T00291040  RH  060%=      5-min Rain = 0
KES1 170832Z 27003KT 03/M04 A3012 RMK A01 T00291040  RH  060%=      5-min Rain = 0
KES1 170833Z 28003KT 03/M04 A3012 RMK A01 T00281041  RH  060%=      5-min Rain = 0
KES1 170834Z 27003KT 03/M04 A3012 RMK A01 T00281041  RH  061%=      5-min Rain = 0
KES1 170835Z 28003KT 03/M04 A3012 RMK A01 T00271041  RH  061%=      5-min Rain = 0
KES1 170836Z 28003KT 03/M04 A3012 RMK A01 T00271041  RH  061%=      5-min Rain = 0
KES1 170837Z 28003KT 03/M04 A3012 RMK A01 T00271041  RH  061%=      5-min Rain = 0
KES1 170838Z 28003KT 03/M04 A3012 RMK A01 T00271041  RH  061%=      5-min Rain = 0
KES1 170839Z 28003KT 03/M04 A3012 RMK A01 T00281041  RH  061%=      5-min Rain = 0
KES1 170840Z 28003KT 03/M04 A3012 RMK A01 T00281041  RH  060%=      5-min Rain = 0
KES1 170841Z 28003KT 03/M04 A3012 RMK A01 T00281042  RH  060%=      5-min Rain = 0
KES1 170842Z 28003KT 03/M04 A3012 RMK A01 T00281042  RH  060%=      5-min Rain = 0
KES1 170843Z 28003KT 03/M04 A3012 RMK A01 T00281042  RH  060%=      5-min Rain = 0
KES1 170844Z 28003KT 03/M04 A3012 RMK A01 T00281041  RH  060%=      5-min Rain = 0
KES1 170845Z 28003KT 03/M04 A3012 RMK A01 T00271042  RH  061%=      5-min Rain = 0
KES1 170846Z 29003KT 03/M04 A3012 RMK A01 T00261042  RH  061%=      5-min Rain = 0
KES1 170847Z 28003KT 03/M04 A3012 RMK A01 T00261042  RH  061%=      5-min Rain = 0
KES1 170848Z 28003KT 03/M04 A3012 RMK A01 T00261042  RH  061%=      5-min Rain = 0
KES1 170849Z 28003KT 03/M04 A3012 RMK A01 T00261042  RH  061%=      5-min Rain = 0
KES1 170850Z 29004KT 03/M04 A3012 RMK A01 T00261042  RH  061%=      5-min Rain = 0
KES1 170851Z 29004KT 03/M04 A3012 RMK A01 T00261042  RH  061%=      5-min Rain = 0
KES1 170852Z 30004KT 03/M04 A3012 RMK A01 T00261042  RH  061%=      5-min Rain = 0
KES1 170853Z 30004KT 03/M04 A3012 RMK A01 T00271042  RH  060%=      5-min Rain = 0
KES1 170854Z 30004KT 03/M04 A3012 RMK A01 T00271042  RH  060%=      5-min Rain = 0
KES1 170855Z 29004KT 03/M04 A3012 RMK A01 T00281042  RH  060%=      5-min Rain = 0
KES1 170856Z 29004KT 03/M04 A3012 RMK A01 T00291043  RH  059%=      5-min Rain = 0
KES1 170857Z 29004KT 03/M04 A3012 RMK A01 T00281043  RH  059%=      5-min Rain = 0
KES1 170858Z 29004KT 03/M04 A3012 RMK A01 T00271043  RH  060%=      5-min Rain = 0
KES1 170859Z 29004KT 03/M04 A3012 RMK A01 T00261043  RH  060%=      5-min Rain = 0
KES1 170900Z 29004KT 03/M04 A3012 RMK A01 T00251044  RH  060%=      5-min Rain = 0
KES1 170901Z 29004KT 03/M04 A3012 RMK A01 T00251043  RH  061%=      5-min Rain = 0
KES1 170902Z 29004KT 02/M04 A3012 RMK A01 T00241044  RH  061%=      5-min Rain = 0
KES1 170903Z 30005KT 02/M04 A3012 RMK A01 T00241043  RH  061%=      5-min Rain = 0
KES1 170904Z 30005KT 02/M04 A3012 RMK A01 T00241043  RH  061%=      5-min Rain = 0
KES1 170905Z 29005KT 02/M04 A3012 RMK A01 T00241043  RH  061%=      5-min Rain = 0
KES1 170906Z 29006KT 02/M04 A3012 RMK A01 T00231044  RH  061%=      5-min Rain = 0
KES1 170907Z 29005KT 02/M04 A3012 RMK A01 T00231044  RH  061%=      5-min Rain = 0
KES1 170908Z 29005KT 02/M04 A3012 RMK A01 T00241044  RH  061%=      5-min Rain = 0
KES1 170909Z 29005KT 02/M04 A3012 RMK A01 T00241044  RH  061%=      5-min Rain = 0
KES1 170910Z 29005KT 03/M04 A3012 RMK A01 T00251044  RH  060%=      5-min Rain = 0
KES1 170911Z 29005KT 03/M04 A3012 RMK A01 T00261044  RH  060%=      5-min Rain = 0
KES1 170912Z 29005KT 03/M04 A3012 RMK A01 T00261044  RH  060%=      5-min Rain = 0
KES1 170913Z 29005KT 03/M04 A3012 RMK A01 T00261044  RH  060%=      5-min Rain = 0
KES1 170914Z 29005KT 03/M05 A3012 RMK A01 T00261045  RH  060%=      5-min Rain = 0
KES1 170915Z 29005KT 03/M05 A3012 RMK A01 T00271045  RH  059%=      5-min Rain = 0
KES1 170916Z 29006KT 03/M05 A3012 RMK A01 T00271045  RH  059%=      5-min Rain = 0
KES1 170917Z 29005KT 03/M05 A3012 RMK A01 T00281045  RH  059%=      5-min Rain = 0
KES1 170918Z 30006KT 03/M05 A3012 RMK A01 T00281045  RH  059%=      5-min Rain = 0
KES1 170919Z 30005KT 03/M05 A3012 RMK A01 T00281045  RH  059%=      5-min Rain = 0
KES1 170920Z 29005KT 03/M05 A3012 RMK A01 T00281045  RH  059%=      5-min Rain = 0
KES1 170921Z 29004KT 03/M05 A3012 RMK A01 T00291045  RH  058%=      5-min Rain = 0
KES1 170922Z 30004KT 03/M05 A3012 RMK A01 T00291045  RH  058%=      5-min Rain = 0
KES1 170923Z 30004KT 03/M05 A3012 RMK A01 T00291045  RH  058%=      5-min Rain = 0
KES1 170924Z 30004KT 03/M05 A3012 RMK A01 T00291045  RH  058%=      5-min Rain = 0
KES1 170925Z 30005KT 03/M05 A3012 RMK A01 T00291046  RH  058%=      5-min Rain = 0
KES1 170926Z 30005KT 03/M05 A3012 RMK A01 T00281046  RH  058%=      5-min Rain = 0
KES1 170927Z 30005KT 03/M05 A3012 RMK A01 T00281046  RH  058%=      5-min Rain = 0
KES1 170928Z 30004KT 03/M05 A3012 RMK A01 T00281046  RH  058%=      5-min Rain = 0
KES1 170929Z 30004KT 03/M05 A3012 RMK A01 T00291046  RH  058%=      5-min Rain = 0
KES1 170930Z 30004KT 03/M05 A3012 RMK A01 T00291046  RH  058%=      5-min Rain = 0
KES1 170931Z 31004KT 03/M05 A3012 RMK A01 T00281047  RH  058%=      5-min Rain = 0
KES1 170932Z 30004KT 03/M05 A3012 RMK A01 T00281047  RH  058%=      5-min Rain = 0
KES1 170933Z 30005KT 03/M05 A3012 RMK A01 T00281046  RH  058%=      5-min Rain = 0
KES1 170934Z 30005KT 03/M05 A3012 RMK A01 T00281046  RH  058%=      5-min Rain = 0
KES1 170935Z 30005KT 03/M05 A3012 RMK A01 T00281047  RH  058%=      5-min Rain = 0
KES1 170936Z 30006KT 03/M05 A3012 RMK A01 T00281047  RH  058%=      5-min Rain = 0
KES1 170937Z 30006KT 03/M05 A3012 RMK A01 T00281047  RH  058%=      5-min Rain = 0
KES1 170938Z 30006KT 03/M05 A3012 RMK A01 T00281046  RH  058%=      5-min Rain = 0
KES1 170939Z 30006KT 03/M05 A3012 RMK A01 T00281046  RH  058%=      5-min Rain = 0
KES1 170940Z 30005KT 03/M05 A3012 RMK A01 T00281046  RH  058%=      5-min Rain = 0
KES1 170941Z 30005KT 03/M05 A3012 RMK A01 T00301045  RH  058%=      5-min Rain = 0
KES1 170942Z 30005KT 03/M05 A3012 RMK A01 T00301046  RH  057%=      5-min Rain = 0
KES1 170943Z 31004KT 03/M05 A3012 RMK A01 T00311046  RH  057%=      5-min Rain = 0
KES1 170944Z 30004KT 03/M05 A3012 RMK A01 T00311045  RH  057%=      5-min Rain = 0
KES1 170945Z 30004KT 03/M05 A3012 RMK A01 T00311046  RH  057%=      5-min Rain = 0
KES1 170946Z 30004KT 03/M05 A3012 RMK A01 T00311046  RH  057%=      5-min Rain = 0
KES1 170947Z 30005KT 03/M05 A3012 RMK A01 T00311046  RH  057%=      5-min Rain = 0
KES1 170948Z 30004KT 03/M05 A3012 RMK A01 T00311047  RH  057%=      5-min Rain = 0
KES1 170949Z 30004KT 03/M05 A3012 RMK A01 T00321047  RH  056%=      5-min Rain = 0
KES1 170950Z 30005KT 03/M05 A3012 RMK A01 T00311047  RH  057%=      5-min Rain = 0
KES1 170951Z 30005KT 03/M05 A3012 RMK A01 T00311047  RH  057%=      5-min Rain = 0
KES1 170952Z 31005KT 03/M05 A3012 RMK A01 T00311046  RH  057%=      5-min Rain = 0
KES1 170953Z 31005KT 03/M05 A3012 RMK A01 T00311046  RH  057%=      5-min Rain = 0
KES1 170954Z 31005KT 03/M05 A3012 RMK A01 T00311046  RH  057%=      5-min Rain = 0
KES1 170955Z 30005KT 03/M05 A3012 RMK A01 T00301046  RH  057%=      5-min Rain = 0
KES1 170956Z 30006KT 03/M05 A3012 RMK A01 T00301046  RH  058%=      5-min Rain = 0
KES1 170957Z 30005KT 03/M05 A3012 RMK A01 T00291046  RH  058%=      5-min Rain = 0
KES1 170958Z 31005KT 03/M05 A3012 RMK A01 T00291046  RH  058%=      5-min Rain = 0
KES1 170959Z 30005KT 03/M05 A3012 RMK A01 T00291046  RH  058%=      5-min Rain = 0
KES1 171000Z 30006KT 03/M05 A3012 RMK A01 T00301046  RH  058%=      5-min Rain = 0
KES1 171001Z 30005KT 03/M05 A3012 RMK A01 T00301046  RH  057%=      5-min Rain = 0
KES1 171002Z 31005KT 03/M05 A3012 RMK A01 T00301045  RH  058%=      5-min Rain = 0
KES1 171003Z 30005KT 03/M05 A3012 RMK A01 T00301045  RH  058%=      5-min Rain = 0
KES1 171004Z 30005KT 03/M05 A3012 RMK A01 T00301045  RH  058%=      5-min Rain = 0
KES1 171005Z 30005KT 03/M05 A3012 RMK A01 T00291045  RH  058%=      5-min Rain = 0
KES1 171006Z 30005KT 03/M05 A3012 RMK A01 T00291045  RH  058%=      5-min Rain = 0
KES1 171007Z 30006KT 03/M05 A3012 RMK A01 T00291046  RH  058%=      5-min Rain = 0
KES1 171008Z 30005KT 03/M05 A3012 RMK A01 T00311046  RH  057%=      5-min Rain = 0
KES1 171009Z 29005KT 03/M05 A3012 RMK A01 T00311046  RH  057%=      5-min Rain = 0
KES1 171010Z 30005KT 03/M05 A3012 RMK A01 T00311046  RH  057%=      5-min Rain = 0
KES1 171011Z 30005KT 03/M05 A3012 RMK A01 T00311046  RH  057%=      5-min Rain = 0
KES1 171012Z 30005KT 03/M05 A3012 RMK A01 T00301046  RH  057%=      5-min Rain = 0
KES1 171013Z 29006KT 03/M05 A3012 RMK A01 T00301045  RH  058%=      5-min Rain = 0
KES1 171014Z 30005KT 03/M05 A3012 RMK A01 T00301046  RH  057%=      5-min Rain = 0
KES1 171015Z 29005KT 03/M05 A3012 RMK A01 T00301046  RH  057%=      5-min Rain = 0
KES1 171016Z 29005KT 03/M05 A3012 RMK A01 T00311046  RH  057%=      5-min Rain = 0
KES1 171017Z 28004KT 03/M05 A3012 RMK A01 T00311046  RH  057%=      5-min Rain = 0
KES1 171018Z 29004KT 03/M05 A3012 RMK A01 T00311046  RH  057%=      5-min Rain = 0
KES1 171019Z 29004KT 03/M05 A3012 RMK A01 T00311046  RH  057%=      5-min Rain = 0
KES1 171020Z 29004KT 03/M05 A3012 RMK A01 T00311046  RH  057%=      5-min Rain = 0
KES1 171021Z 29004KT 03/M05 A3012 RMK A01 T00311046  RH  057%=      5-min Rain = 0
KES1 171022Z 28004KT 03/M05 A3012 RMK A01 T00301047  RH  057%=      5-min Rain = 0
KES1 171023Z 28004KT 03/M05 A3012 RMK A01 T00311047  RH  057%=      5-min Rain = 0
KES1 171024Z 29005KT 03/M05 A3012 RMK A01 T00301047  RH  057%=      5-min Rain = 0
KES1 171025Z 28005KT 03/M05 A3012 RMK A01 T00301048  RH  057%=      5-min Rain = 0
KES1 171026Z 29005KT 03/M05 A3012 RMK A01 T00311047  RH  057%=      5-min Rain = 0
KES1 171027Z 27005KT 03/M05 A3012 RMK A01 T00311047  RH  056%=      5-min Rain = 0
KES1 171028Z 28005KT 03/M05 A3012 RMK A01 T00311047  RH  057%=      5-min Rain = 0
KES1 171029Z 28005KT 03/M05 A3012 RMK A01 T00301047  RH  057%=      5-min Rain = 0
KES1 171030Z 29004KT 03/M05 A3012 RMK A01 T00301046  RH  057%=      5-min Rain = 0
KES1 171031Z 29005KT 03/M05 A3012 RMK A01 T00301046  RH  057%=      5-min Rain = 0
KES1 171032Z 28005KT 03/M05 A3012 RMK A01 T00301046  RH  057%=      5-min Rain = 0
KES1 171033Z 28004KT 03/M05 A3012 RMK A01 T00301046  RH  057%=      5-min Rain = 0
KES1 171034Z 28004KT 03/M05 A3012 RMK A01 T00291046  RH  058%=      5-min Rain = 0
KES1 171035Z 28006KT 03/M05 A3012 RMK A01 T00281046  RH  058%=      5-min Rain = 0
KES1 171036Z 28005KT 03/M05 A3012 RMK A01 T00281045  RH  058%=      5-min Rain = 0
KES1 171037Z 28005KT 03/M05 A3012 RMK A01 T00291045  RH  058%=      5-min Rain = 0
KES1 171038Z 27005KT 03/M05 A3012 RMK A01 T00291045  RH  058%=      5-min Rain = 0
KES1 171039Z 27005KT 03/M05 A3012 RMK A01 T00281045  RH  059%=      5-min Rain = 0
KES1 171040Z 26004KT 03/M05 A3012 RMK A01 T00271045  RH  059%=      5-min Rain = 0
KES1 171041Z 26003KT 03/M04 A3012 RMK A01 T00261044  RH  060%=      5-min Rain = 0
KES1 171042Z 26003KT 02/M04 A3012 RMK A01 T00241044  RH  061%=      5-min Rain = 0
KES1 171043Z 25003KT 02/M04 A3012 RMK A01 T00221043  RH  062%=      5-min Rain = 0
KES1 171044Z 25003KT 02/M04 A3012 RMK A01 T00211043  RH  063%=      5-min Rain = 0
KES1 171045Z 25004KT 02/M04 A3012 RMK A01 T00211042  RH  063%=      5-min Rain = 0
KES1 171046Z 24003KT 02/M04 A3012 RMK A01 T00201041  RH  064%=      5-min Rain = 0
KES1 171047Z 25003KT 02/M04 A3012 RMK A01 T00191041  RH  064%=      5-min Rain = 0
KES1 171048Z 25004KT 02/M04 A3012 RMK A01 T00181041  RH  065%=      5-min Rain = 0
KES1 171049Z 25004KT 02/M04 A3012 RMK A01 T00181041  RH  065%=      5-min Rain = 0
KES1 171050Z 26003KT 02/M04 A3012 RMK A01 T00181040  RH  066%=      5-min Rain = 0
KES1 171051Z 26004KT 02/M04 A3012 RMK A01 T00171040  RH  066%=      5-min Rain = 0
KES1 171052Z 26004KT 02/M04 A3012 RMK A01 T00171040  RH  066%=      5-min Rain = 0
KES1 171053Z 26004KT 02/M04 A3012 RMK A01 T00161040  RH  066%=      5-min Rain = 0
KES1 171054Z 26004KT 02/M04 A3012 RMK A01 T00171039  RH  067%=      5-min Rain = 0
KES1 171055Z 25004KT 02/M04 A3012 RMK A01 T00171038  RH  067%=      5-min Rain = 0
KES1 171056Z 26004KT 02/M04 A3012 RMK A01 T00171038  RH  067%=      5-min Rain = 0
KES1 171057Z 26004KT 02/M04 A3012 RMK A01 T00171038  RH  067%=      5-min Rain = 0
KES1 171058Z 25004KT 02/M04 A3012 RMK A01 T00171038  RH  067%=      5-min Rain = 0
KES1 171059Z 25004KT 02/M04 A3012 RMK A01 T00171037  RH  067%=      5-min Rain = 0
KES1 171100Z 25004KT 02/M04 A3012 RMK A01 T00181037  RH  067%=      5-min Rain = 0
KES1 171101Z 25004KT 02/M04 A3012 RMK A01 T00181037  RH  067%=      5-min Rain = 0
KES1 171102Z 25004KT 02/M04 A3012 RMK A01 T00181037  RH  067%=      5-min Rain = 0
KES1 171103Z 25004KT 02/M04 A3012 RMK A01 T00181036  RH  067%=      5-min Rain = 0
KES1 171104Z 25003KT 02/M04 A3012 RMK A01 T00191036  RH  067%=      5-min Rain = 0
KES1 171105Z 25004KT 02/M04 A3012 RMK A01 T00181036  RH  067%=      5-min Rain = 0
KES1 171106Z 26004KT 02/M04 A3012 RMK A01 T00191036  RH  067%=      5-min Rain = 0
KES1 171107Z 25004KT 02/M04 A3012 RMK A01 T00191035  RH  067%=      5-min Rain = 0
KES1 171108Z 25003KT 02/M04 A3012 RMK A01 T00191036  RH  067%=      5-min Rain = 0
KES1 171109Z 26003KT 02/M04 A3012 RMK A01 T00191035  RH  067%=      5-min Rain = 0
KES1 171110Z 26003KT 02/M04 A3012 RMK A01 T00191035  RH  067%=      5-min Rain = 0
KES1 171111Z 27003KT 02/M04 A3012 RMK A01 T00191035  RH  067%=      5-min Rain = 0
KES1 171112Z 28004KT 02/M04 A3012 RMK A01 T00201035  RH  067%=      5-min Rain = 0
KES1 171113Z 28004KT 02/M04 A3012 RMK A01 T00201035  RH  067%=      5-min Rain = 0
KES1 171114Z 28003KT 02/M04 A3012 RMK A01 T00211035  RH  066%=      5-min Rain = 0
KES1 171115Z 28004KT 02/M04 A3012 RMK A01 T00221035  RH  066%=      5-min Rain = 0
KES1 171116Z 28004KT 02/M04 A3012 RMK A01 T00221035  RH  066%=      5-min Rain = 0
KES1 171117Z 28005KT 02/M04 A3012 RMK A01 T00231036  RH  065%=      5-min Rain = 0
KES1 171118Z 29006KT 02/M04 A3012 RMK A01 T00241036  RH  065%=      5-min Rain = 0
KES1 171119Z 28006KT 03/M04 A3012 RMK A01 T00251037  RH  064%=      5-min Rain = 0
KES1 171120Z 28006KT 03/M04 A3012 RMK A01 T00261037  RH  063%=      5-min Rain = 0
KES1 171121Z 28006KT 03/M04 A3012 RMK A01 T00271037  RH  063%=      5-min Rain = 0
KES1 171122Z 28005KT 03/M04 A3012 RMK A01 T00271037  RH  062%=      5-min Rain = 0
KES1 171123Z 28006KT 03/M04 A3012 RMK A01 T00271038  RH  062%=      5-min Rain = 0
KES1 171124Z 27005KT 03/M04 A3012 RMK A01 T00281039  RH  061%=      5-min Rain = 0
KES1 171125Z 27005KT 03/M04 A3012 RMK A01 T00291039  RH  061%=      5-min Rain = 0
KES1 171126Z 27006KT 03/M04 A3012 RMK A01 T00291038  RH  061%=      5-min Rain = 0
KES1 171127Z 27005KT 03/M04 A3012 RMK A01 T00291038  RH  061%=      5-min Rain = 0
KES1 171128Z 27005KT 03/M04 A3012 RMK A01 T00291038  RH  061%=      5-min Rain = 0
KES1 171129Z 27005KT 03/M04 A3012 RMK A01 T00291038  RH  061%=      5-min Rain = 0
KES1 171130Z 27005KT 03/M04 A3012 RMK A01 T00281038  RH  061%=      5-min Rain = 0
KES1 171131Z 27006KT 03/M04 A3012 RMK A01 T00281038  RH  062%=      5-min Rain = 0
KES1 171132Z 27005KT 03/M04 A3012 RMK A01 T00281039  RH  062%=      5-min Rain = 0
KES1 171133Z 27005KT 03/M04 A3012 RMK A01 T00281039  RH  062%=      5-min Rain = 0
KES1 171134Z 27005KT 03/M04 A3012 RMK A01 T00271039  RH  062%=      5-min Rain = 0
KES1 171135Z 27005KT 03/M04 A3012 RMK A01 T00271039  RH  062%=      5-min Rain = 0
KES1 171136Z 27005KT 03/M04 A3012 RMK A01 T00261039  RH  062%=      5-min Rain = 0
KES1 171137Z 28005KT 03/M04 A3012 RMK A01 T00261039  RH  062%=      5-min Rain = 0
KES1 171138Z 27004KT 03/M04 A3012 RMK A01 T00261039  RH  062%=      5-min Rain = 0
KES1 171139Z 27004KT 03/M04 A3012 RMK A01 T00261039  RH  062%=      5-min Rain = 0
KES1 171140Z 26005KT 03/M04 A3012 RMK A01 T00251039  RH  063%=      5-min Rain = 0
KES1 171141Z 27005KT 03/M04 A3012 RMK A01 T00251040  RH  063%=      5-min Rain = 0
KES1 171142Z 27004KT 03/M04 A3012 RMK A01 T00251039  RH  063%=      5-min Rain = 0
KES1 171143Z 27004KT 02/M04 A3012 RMK A01 T00241040  RH  063%=      5-min Rain = 0
KES1 171144Z 27004KT 02/M04 A3012 RMK A01 T00241040  RH  063%=      5-min Rain = 0
KES1 171145Z 27004KT 02/M04 A3012 RMK A01 T00241040  RH  063%=      5-min Rain = 0
KES1 171146Z 27004KT 02/M04 A3012 RMK A01 T00241041  RH  062%=      5-min Rain = 0
KES1 171147Z 27004KT 02/M04 A3013 RMK A01 T00241041  RH  062%=      5-min Rain = 0
KES1 171148Z 27004KT 03/M04 A3013 RMK A01 T00251040  RH  062%=      5-min Rain = 0
KES1 171149Z 27004KT 03/M04 A3013 RMK A01 T00251041  RH  062%=      5-min Rain = 0
KES1 171150Z 29004KT 03/M04 A3013 RMK A01 T00251041  RH  062%=      5-min Rain = 0
KES1 171151Z 28004KT 03/M04 A3013 RMK A01 T00261042  RH  061%=      5-min Rain = 0
KES1 171152Z 27003KT 03/M04 A3013 RMK A01 T00271042  RH  061%=      5-min Rain = 0
KES1 171153Z 26002KT 03/M04 A3013 RMK A01 T00271042  RH  060%=      5-min Rain = 0
KES1 171154Z 27003KT 03/M04 A3013 RMK A01 T00271042  RH  061%=      5-min Rain = 0
KES1 171155Z 26002KT 03/M04 A3013 RMK A01 T00261042  RH  061%=      5-min Rain = 0
KES1 171156Z 27004KT 03/M04 A3013 RMK A01 T00261042  RH  061%=      5-min Rain = 0
KES1 171157Z 26003KT 03/M04 A3013 RMK A01 T00251042  RH  061%=      5-min Rain = 0
KES1 171158Z 26003KT 03/M04 A3013 RMK A01 T00251042  RH  061%=      5-min Rain = 0
KES1 171159Z 26004KT 03/M04 A3013 RMK A01 T00251042  RH  061%=      5-min Rain = 0
KES1 171200Z 26004KT 03/M04 A3013 RMK A01 T00251042  RH  061%=      5-min Rain = 0
KES1 171201Z 26004KT 03/M04 A3013 RMK A01 T00251042  RH  061%=      5-min Rain = 0
KES1 171202Z 25004KT 03/M04 A3013 RMK A01 T00251042  RH  061%=      5-min Rain = 0
KES1 171203Z 26003KT 03/M04 A3013 RMK A01 T00251042  RH  061%=      5-min Rain = 0
KES1 171204Z 26004KT 02/M04 A3013 RMK A01 T00241042  RH  062%=      5-min Rain = 0
KES1 171205Z 25004KT 02/M04 A3013 RMK A01 T00241042  RH  062%=      5-min Rain = 0
KES1 171206Z 26003KT 02/M04 A3013 RMK A01 T00231042  RH  062%=      5-min Rain = 0
KES1 171207Z 26003KT 02/M04 A3013 RMK A01 T00231042  RH  062%=      5-min Rain = 0
KES1 171208Z 25003KT 02/M04 A3013 RMK A01 T00231043  RH  062%=      5-min Rain = 0
KES1 171209Z 27003KT 02/M04 A3013 RMK A01 T00221043  RH  062%=      5-min Rain = 0
KES1 171210Z 27002KT 02/M04 A3013 RMK A01 T00221043  RH  062%=      5-min Rain = 0
KES1 171211Z 26002KT 02/M04 A3013 RMK A01 T00221043  RH  063%=      5-min Rain = 0
KES1 171212Z 26003KT 02/M04 A3013 RMK A01 T00211043  RH  063%=      5-min Rain = 0
KES1 171213Z 27003KT 02/M04 A3013 RMK A01 T00211043  RH  063%=      5-min Rain = 0
KES1 171214Z 27002KT 02/M04 A3014 RMK A01 T00211043  RH  063%=      5-min Rain = 0
KES1 171215Z 27003KT 02/M04 A3014 RMK A01 T00201043  RH  063%=      5-min Rain = 0
KES1 171216Z 28003KT 02/M04 A3014 RMK A01 T00201043  RH  063%=      5-min Rain = 0
KES1 171217Z 28002KT 02/M04 A3014 RMK A01 T00201043  RH  063%=      5-min Rain = 0
KES1 171218Z 27003KT 02/M04 A3014 RMK A01 T00201043  RH  063%=      5-min Rain = 0
KES1 171219Z 25003KT 02/M04 A3014 RMK A01 T00191044  RH  063%=      5-min Rain = 0
KES1 171220Z 27003KT 02/M04 A3014 RMK A01 T00181044  RH  063%=      5-min Rain = 0
KES1 171221Z 26002KT 02/M04 A3014 RMK A01 T00171044  RH  064%=      5-min Rain = 0
KES1 171222Z 26003KT 02/M04 A3014 RMK A01 T00171044  RH  064%=      5-min Rain = 0
KES1 171223Z 26003KT 02/M05 A3014 RMK A01 T00161045  RH  064%=      5-min Rain = 0
KES1 171224Z 25002KT 02/M05 A3014 RMK A01 T00161045  RH  064%=      5-min Rain = 0
KES1 171225Z 25003KT 02/M05 A3014 RMK A01 T00151045  RH  064%=      5-min Rain = 0
KES1 171226Z 25003KT 01/M05 A3014 RMK A01 T00141045  RH  065%=      5-min Rain = 0
KES1 171227Z 25003KT 01/M05 A3014 RMK A01 T00141045  RH  065%=      5-min Rain = 0
KES1 171228Z 25002KT 01/M05 A3014 RMK A01 T00131046  RH  065%=      5-min Rain = 0
KES1 171229Z 25003KT 01/M05 A3014 RMK A01 T00131046  RH  065%=      5-min Rain = 0
KES1 171230Z 24003KT 01/M05 A3014 RMK A01 T00121046  RH  065%=      5-min Rain = 0
KES1 171231Z 24003KT 01/M05 A3014 RMK A01 T00121045  RH  066%=      5-min Rain = 0
KES1 171232Z 24003KT 01/M05 A3014 RMK A01 T00121045  RH  066%=      5-min Rain = 0
KES1 171233Z 24004KT 01/M05 A3014 RMK A01 T00111045  RH  066%=      5-min Rain = 0
KES1 171234Z 24004KT 01/M05 A3015 RMK A01 T00111045  RH  066%=      5-min Rain = 0
KES1 171235Z 23004KT 01/M05 A3015 RMK A01 T00111045  RH  066%=      5-min Rain = 0
KES1 171236Z 23004KT 01/M05 A3015 RMK A01 T00111045  RH  066%=      5-min Rain = 0
KES1 171237Z 22004KT 01/M05 A3015 RMK A01 T00101045  RH  067%=      5-min Rain = 0
KES1 171238Z 22004KT 01/M05 A3015 RMK A01 T00101045  RH  067%=      5-min Rain = 0
KES1 171239Z 22004KT 01/M05 A3015 RMK A01 T00091045  RH  067%=      5-min Rain = 0
KES1 171240Z 22005KT 01/M05 A3015 RMK A01 T00091045  RH  067%=      5-min Rain = 0
KES1 171241Z 22005KT 01/M05 A3015 RMK A01 T00091045  RH  067%=      5-min Rain = 0
KES1 171242Z 22005KT 01/M05 A3015 RMK A01 T00091045  RH  068%=      5-min Rain = 0
KES1 171243Z 22005KT 01/M05 A3015 RMK A01 T00081045  RH  068%=      5-min Rain = 0
KES1 171244Z 23005KT 01/M04 A3015 RMK A01 T00081044  RH  068%=      5-min Rain = 0
KES1 171245Z 22005KT 01/M05 A3015 RMK A01 T00081045  RH  068%=      5-min Rain = 0
KES1 171246Z 22005KT 01/M05 A3015 RMK A01 T00081045  RH  068%=      5-min Rain = 0
KES1 171247Z 22005KT 01/M05 A3015 RMK A01 T00081045  RH  068%=      5-min Rain = 0
KES1 171248Z 23005KT 01/M05 A3015 RMK A01 T00081045  RH  068%=      5-min Rain = 0
KES1 171249Z 23006KT 01/M05 A3015 RMK A01 T00081045  RH  068%=      5-min Rain = 0
KES1 171250Z 24006KT 01/M05 A3015 RMK A01 T00081045  RH  068%=      5-min Rain = 0
KES1 171251Z 24007KT 01/M05 A3015 RMK A01 T00081045  RH  068%=      5-min Rain = 0
KES1 171252Z 25006KT 01/M05 A3015 RMK A01 T00081045  RH  068%=      5-min Rain = 0
KES1 171253Z 25006KT 01/M05 A3015 RMK A01 T00091045  RH  067%=      5-min Rain = 0
KES1 171254Z 25007KT 01/M05 A3015 RMK A01 T00091045  RH  067%=      5-min Rain = 0
KES1 171255Z 26007KT 01/M05 A3015 RMK A01 T00101045  RH  067%=      5-min Rain = 0
KES1 171256Z 25006KT 01/M05 A3015 RMK A01 T00101045  RH  067%=      5-min Rain = 0
KES1 171257Z 25005KT 01/M05 A3015 RMK A01 T00101045  RH  066%=      5-min Rain = 0
KES1 171258Z 25006KT 01/M05 A3015 RMK A01 T00101046  RH  067%=      5-min Rain = 0
KES1 171259Z 25006KT 01/M05 A3015 RMK A01 T00091045  RH  067%=      5-min Rain = 0
KES1 171300Z 25006KT 01/M05 A3015 RMK A01 T00091045  RH  067%=      5-min Rain = 0
KES1 171301Z 25006KT 01/M05 A3016 RMK A01 T00091046  RH  067%=      5-min Rain = 0
KES1 171302Z 25007KT 01/M05 A3015 RMK A01 T00081046  RH  067%=      5-min Rain = 0
KES1 171303Z 25006KT 01/M05 A3015 RMK A01 T00081046  RH  067%=      5-min Rain = 0
KES1 171304Z 25006KT 01/M05 A3016 RMK A01 T00081046  RH  067%=      5-min Rain = 0
KES1 171305Z 24006KT 01/M05 A3016 RMK A01 T00091046  RH  067%=      5-min Rain = 0
KES1 171306Z 24006KT 01/M05 A3016 RMK A01 T00091046  RH  067%=      5-min Rain = 0
KES1 171307Z 24006KT 01/M05 A3016 RMK A01 T00091046  RH  066%=      5-min Rain = 0
KES1 171308Z 24005KT 01/M05 A3016 RMK A01 T00091047  RH  066%=      5-min Rain = 0
KES1 171309Z 24005KT 01/M05 A3016 RMK A01 T00101046  RH  066%=      5-min Rain = 0
KES1 171310Z 24005KT 01/M05 A3016 RMK A01 T00101047  RH  066%=      5-min Rain = 0
KES1 171311Z 24005KT 01/M05 A3016 RMK A01 T00101047  RH  066%=      5-min Rain = 0
KES1 171312Z 24005KT 01/M05 A3016 RMK A01 T00101047  RH  066%=      5-min Rain = 0
KES1 171313Z 23005KT 01/M05 A3016 RMK A01 T00101047  RH  066%=      5-min Rain = 0
KES1 171314Z 23004KT 01/M05 A3016 RMK A01 T00101048  RH  065%=      5-min Rain = 0
KES1 171315Z 24004KT 01/M05 A3016 RMK A01 T00101048  RH  065%=      5-min Rain = 0
KES1 171316Z 24004KT 01/M05 A3016 RMK A01 T00101048  RH  065%=      5-min Rain = 0
KES1 171317Z 24004KT 01/M05 A3016 RMK A01 T00101048  RH  065%=      5-min Rain = 0
KES1 171318Z 24003KT 01/M05 A3016 RMK A01 T00101048  RH  065%=      5-min Rain = 0
KES1 171319Z 23004KT 01/M05 A3016 RMK A01 T00101048  RH  065%=      5-min Rain = 0
KES1 171320Z 23004KT 01/M05 A3016 RMK A01 T00101048  RH  065%=      5-min Rain = 0
KES1 171321Z 23004KT 01/M05 A3016 RMK A01 T00101048  RH  065%=      5-min Rain = 0
KES1 171322Z 23004KT 01/M05 A3016 RMK A01 T00101048  RH  065%=      5-min Rain = 0
KES1 171323Z 24004KT 01/M05 A3016 RMK A01 T00101048  RH  065%=      5-min Rain = 0
KES1 171324Z 23005KT 01/M05 A3016 RMK A01 T00101049  RH  065%=      5-min Rain = 0
KES1 171325Z 23005KT 01/M05 A3016 RMK A01 T00101049  RH  065%=      5-min Rain = 0
KES1 171326Z 23004KT 01/M05 A3016 RMK A01 T00101049  RH  065%=      5-min Rain = 0
KES1 171327Z 24005KT 01/M05 A3016 RMK A01 T00101049  RH  065%=      5-min Rain = 0
KES1 171328Z 24005KT 01/M05 A3016 RMK A01 T00101049  RH  065%=      5-min Rain = 0
KES1 171329Z 24005KT 01/M05 A3016 RMK A01 T00101049  RH  065%=      5-min Rain = 0
KES1 171330Z 24005KT 01/M05 A3016 RMK A01 T00101050  RH  065%=      5-min Rain = 0
KES1 171331Z 24005KT 01/M05 A3016 RMK A01 T00101050  RH  065%=      5-min Rain = 0
KES1 171332Z 25004KT 01/M05 A3016 RMK A01 T00101049  RH  065%=      5-min Rain = 0
KES1 171333Z 25004KT 01/M05 A3016 RMK A01 T00111049  RH  064%=      5-min Rain = 0
KES1 171334Z 25004KT 01/M05 A3016 RMK A01 T00111049  RH  064%=      5-min Rain = 0
KES1 171335Z 25004KT 01/M05 A3016 RMK A01 T00121049  RH  064%=      5-min Rain = 0
KES1 171336Z 25003KT 01/M05 A3016 RMK A01 T00121049  RH  064%=      5-min Rain = 0
KES1 171337Z 25004KT 01/M05 A3016 RMK A01 T00111049  RH  064%=      5-min Rain = 0
KES1 171338Z 26004KT 01/M05 A3016 RMK A01 T00111049  RH  064%=      5-min Rain = 0
KES1 171339Z 25004KT 01/M05 A3017 RMK A01 T00111050  RH  064%=      5-min Rain = 0
KES1 171340Z 26005KT 01/M05 A3017 RMK A01 T00101049  RH  064%=      5-min Rain = 0
KES1 171341Z 26005KT 01/M05 A3017 RMK A01 T00101050  RH  065%=      5-min Rain = 0
KES1 171342Z 26005KT 01/M05 A3017 RMK A01 T00101049  RH  065%=      5-min Rain = 0
KES1 171343Z 26006KT 01/M05 A3017 RMK A01 T00101049  RH  065%=      5-min Rain = 0
KES1 171344Z 26006KT 01/M05 A3017 RMK A01 T00101049  RH  065%=      5-min Rain = 0
KES1 171345Z 26006KT 01/M05 A3017 RMK A01 T00101049  RH  065%=      5-min Rain = 0
KES1 171346Z 26006KT 01/M05 A3017 RMK A01 T00111049  RH  064%=      5-min Rain = 0
KES1 171347Z 26006KT 01/M05 A3017 RMK A01 T00111049  RH  064%=      5-min Rain = 0
KES1 171348Z 26006KT 01/M05 A3017 RMK A01 T00121049  RH  064%=      5-min Rain = 0
KES1 171349Z 26005KT 01/M05 A3017 RMK A01 T00141048  RH  064%=      5-min Rain = 0
KES1 171350Z 26006KT 01/M05 A3017 RMK A01 T00141048  RH  063%=      5-min Rain = 0
KES1 171351Z 26005KT 01/M05 A3017 RMK A01 T00141048  RH  063%=      5-min Rain = 0
KES1 171352Z 26005KT 02/M05 A3017 RMK A01 T00151048  RH  063%=      5-min Rain = 0
KES1 171353Z 25005KT 01/M05 A3017 RMK A01 T00141049  RH  063%=      5-min Rain = 0
KES1 171354Z 25005KT 01/M05 A3017 RMK A01 T00141048  RH  063%=      5-min Rain = 0
KES1 171355Z 25005KT 01/M05 A3017 RMK A01 T00141048  RH  063%=      5-min Rain = 0
KES1 171356Z 25004KT 01/M05 A3017 RMK A01 T00141048  RH  063%=      5-min Rain = 0
KES1 171357Z 25005KT 01/M05 A3017 RMK A01 T00131049  RH  063%=      5-min Rain = 0
KES1 171358Z 25004KT 01/M05 A3017 RMK A01 T00141048  RH  063%=      5-min Rain = 0
KES1 171359Z 25005KT 01/M05 A3018 RMK A01 T00141048  RH  063%=      5-min Rain = 0
KES1 171400Z 24004KT 01/M05 A3018 RMK A01 T00141048  RH  063%=      5-min Rain = 0
KES1 171401Z 25005KT 01/M05 A3018 RMK A01 T00141048  RH  063%=      5-min Rain = 0
KES1 171402Z 25005KT 02/M05 A3018 RMK A01 T00151048  RH  063%=      5-min Rain = 0
KES1 171403Z 24005KT 02/M05 A3018 RMK A01 T00161048  RH  063%=      5-min Rain = 0
KES1 171404Z 24004KT 02/M05 A3018 RMK A01 T00161048  RH  063%=      5-min Rain = 0
KES1 171405Z 24005KT 02/M05 A3018 RMK A01 T00161048  RH  062%=      5-min Rain = 0
KES1 171406Z 24004KT 02/M05 A3018 RMK A01 T00171048  RH  062%=      5-min Rain = 0
KES1 171407Z 24004KT 02/M05 A3018 RMK A01 T00171048  RH  062%=      5-min Rain = 0
KES1 171408Z 24004KT 02/M05 A3018 RMK A01 T00181048  RH  062%=      5-min Rain = 0
KES1 171409Z 25004KT 02/M05 A3018 RMK A01 T00181048  RH  061%=      5-min Rain = 0
KES1 171410Z 24004KT 02/M05 A3018 RMK A01 T00191048  RH  061%=      5-min Rain = 0
KES1 171411Z 24004KT 02/M05 A3018 RMK A01 T00201048  RH  061%=      5-min Rain = 0
KES1 171412Z 25004KT 02/M05 A3018 RMK A01 T00201048  RH  061%=      5-min Rain = 0
KES1 171413Z 24004KT 02/M05 A3018 RMK A01 T00201048  RH  061%=      5-min Rain = 0
KES1 171414Z 24004KT 02/M05 A3017 RMK A01 T00211048  RH  060%=      5-min Rain = 0
KES1 171415Z 24004KT 02/M05 A3017 RMK A01 T00211048  RH  060%=      5-min Rain = 0
KES1 171416Z 24003KT 02/M05 A3017 RMK A01 T00211048  RH  060%=      5-min Rain = 0
KES1 171417Z 24003KT 02/M05 A3017 RMK A01 T00221048  RH  060%=      5-min Rain = 0
KES1 171418Z 24003KT 02/M05 A3017 RMK A01 T00221048  RH  060%=      5-min Rain = 0
KES1 171419Z 24004KT 02/M05 A3017 RMK A01 T00221048  RH  060%=      5-min Rain = 0
KES1 171420Z 24005KT 02/M05 A3017 RMK A01 T00221048  RH  060%=      5-min Rain = 0
KES1 171421Z 24005KT 02/M05 A3017 RMK A01 T00221048  RH  060%=      5-min Rain = 0
KES1 171422Z 24005KT 02/M05 A3017 RMK A01 T00231048  RH  059%=      5-min Rain = 0
KES1 171423Z 25005KT 02/M05 A3017 RMK A01 T00241048  RH  059%=      5-min Rain = 0
KES1 171424Z 24005KT 02/M05 A3017 RMK A01 T00241048  RH  059%=      5-min Rain = 0
KES1 171425Z 25007KT 03/M05 A3017 RMK A01 T00251048  RH  059%=      5-min Rain = 0
KES1 171426Z 25005KT 03/M05 A3017 RMK A01 T00261048  RH  059%=      5-min Rain = 0
KES1 171427Z 25005KT 03/M05 A3017 RMK A01 T00261047  RH  058%=      5-min Rain = 0
KES1 171428Z 25006KT 03/M05 A3017 RMK A01 T00261048  RH  058%=      5-min Rain = 0
KES1 171429Z 25006KT 03/M05 A3017 RMK A01 T00271048  RH  058%=      5-min Rain = 0
KES1 171430Z 26006KT 03/M05 A3017 RMK A01 T00281047  RH  058%=      5-min Rain = 0
KES1 171431Z 25007KT 03/M05 A3017 RMK A01 T00281047  RH  058%=      5-min Rain = 0
KES1 171432Z 25007KT 03/M05 A3017 RMK A01 T00281047  RH  058%=      5-min Rain = 0
KES1 171433Z 26007KT 03/M05 A3017 RMK A01 T00291046  RH  058%=      5-min Rain = 0
KES1 171434Z 26007KT 03/M05 A3017 RMK A01 T00291047  RH  058%=      5-min Rain = 0
KES1 171435Z 26007KT 03/M05 A3017 RMK A01 T00291046  RH  058%=      5-min Rain = 0
KES1 171436Z 27007KT 03/M05 A3017 RMK A01 T00291046  RH  058%=      5-min Rain = 0
KES1 171437Z 26007KT 03/M05 A3018 RMK A01 T00291046  RH  058%=      5-min Rain = 0
KES1 171438Z 27007KT 03/M05 A3018 RMK A01 T00291046  RH  058%=      5-min Rain = 0
KES1 171439Z 27007KT 03/M05 A3018 RMK A01 T00291046  RH  058%=      5-min Rain = 0
KES1 171440Z 27008KT 03/M05 A3018 RMK A01 T00301047  RH  057%=      5-min Rain = 0
KES1 171441Z 26008KT 03/M05 A3018 RMK A01 T00301047  RH  057%=      5-min Rain = 0
KES1 171442Z 26006KT 03/M05 A3018 RMK A01 T00311046  RH  057%=      5-min Rain = 0
KES1 171443Z 27007KT 03/M05 A3018 RMK A01 T00311045  RH  057%=      5-min Rain = 0
KES1 171444Z 26006KT 03/M05 A3018 RMK A01 T00311045  RH  057%=      5-min Rain = 0
KES1 171445Z 26007KT 03/M05 A3018 RMK A01 T00311046  RH  057%=      5-min Rain = 0
KES1 171446Z 26006KT 03/M05 A3018 RMK A01 T00311047  RH  057%=      5-min Rain = 0
KES1 171447Z 27006KT 03/M05 A3018 RMK A01 T00311046  RH  057%=      5-min Rain = 0
KES1 171448Z 26006KT 03/M05 A3018 RMK A01 T00311046  RH  057%=      5-min Rain = 0
KES1 171449Z 26006KT 03/M05 A3018 RMK A01 T00311046  RH  057%=      5-min Rain = 0
KES1 171450Z 25006KT 03/M05 A3018 RMK A01 T00311045  RH  057%=      5-min Rain = 0
KES1 171451Z 26005KT 03/M05 A3018 RMK A01 T00311045  RH  057%=      5-min Rain = 0
KES1 171452Z 25005KT 03/M05 A3018 RMK A01 T00311045  RH  057%=      5-min Rain = 0
KES1 171453Z 24005KT 03/M05 A3018 RMK A01 T00311045  RH  057%=      5-min Rain = 0
KES1 171454Z 25005KT 03/M05 A3018 RMK A01 T00321045  RH  057%=      5-min Rain = 0
KES1 171455Z 25005KT 03/M05 A3018 RMK A01 T00321045  RH  057%=      5-min Rain = 0
KES1 171456Z 25005KT 03/M05 A3019 RMK A01 T00321045  RH  057%=      5-min Rain = 0
KES1 171457Z 24005KT 03/M04 A3018 RMK A01 T00321044  RH  058%=      5-min Rain = 0
KES1 171458Z 24004KT 03/M04 A3018 RMK A01 T00321044  RH  057%=      5-min Rain = 0
KES1 171459Z 24003KT 03/M04 A3018 RMK A01 T00321044  RH  057%=      5-min Rain = 0
KES1 171500Z 24004KT 03/M04 A3018 RMK A01 T00331043  RH  057%=      5-min Rain = 0
KES1 171501Z 24004KT 03/M04 A3018 RMK A01 T00331044  RH  057%=      5-min Rain = 0
KES1 171502Z 24004KT 03/M04 A3019 RMK A01 T00331042  RH  058%=      5-min Rain = 0
KES1 171503Z 25004KT 03/M04 A3019 RMK A01 T00331042  RH  058%=      5-min Rain = 0
KES1 171504Z 25005KT 03/M04 A3019 RMK A01 T00341042  RH  058%=      5-min Rain = 0
KES1 171505Z 24004KT 03/M04 A3019 RMK A01 T00341043  RH  057%=      5-min Rain = 0
KES1 171506Z 25004KT 03/M04 A3019 RMK A01 T00341042  RH  058%=      5-min Rain = 0
KES1 171507Z 26004KT 03/M04 A3019 RMK A01 T00341041  RH  058%=      5-min Rain = 0
KES1 171508Z 25003KT 03/M04 A3019 RMK A01 T00341041  RH  058%=      5-min Rain = 0
KES1 171509Z 26004KT 03/M04 A3019 RMK A01 T00341040  RH  058%=      5-min Rain = 0
KES1 171510Z 26003KT 04/M04 A3019 RMK A01 T00351040  RH  058%=      5-min Rain = 0
KES1 171511Z 27003KT 04/M04 A3019 RMK A01 T00351040  RH  058%=      5-min Rain = 0
KES1 171512Z 27003KT 04/M04 A3019 RMK A01 T00361041  RH  057%=      5-min Rain = 0
KES1 171513Z 26003KT 04/M04 A3019 RMK A01 T00361041  RH  057%=      5-min Rain = 0
KES1 171514Z 27002KT 04/M04 A3019 RMK A01 T00361039  RH  058%=      5-min Rain = 0
KES1 171515Z 26002KT 04/M04 A3019 RMK A01 T00371040  RH  057%=      5-min Rain = 0
KES1 171516Z 28003KT 04/M04 A3019 RMK A01 T00371040  RH  057%=      5-min Rain = 0
KES1 171517Z 27003KT 04/M04 A3019 RMK A01 T00381041  RH  056%=      5-min Rain = 0
KES1 171518Z 27004KT 04/M04 A3019 RMK A01 T00381040  RH  057%=      5-min Rain = 0
KES1 171519Z 27004KT 04/M04 A3019 RMK A01 T00391040  RH  056%=      5-min Rain = 0
KES1 171520Z 26003KT 04/M04 A3019 RMK A01 T00391040  RH  056%=      5-min Rain = 0
KES1 171521Z 26002KT 04/M04 A302 RMK A01 T00391039  RH  057%=      5-min Rain = 0
KES1 171522Z 25003KT 04/M04 A302 RMK A01 T00401038  RH  057%=      5-min Rain = 0
KES1 171523Z 26003KT 04/M04 A3019 RMK A01 T00401038  RH  057%=      5-min Rain = 0
KES1 171524Z 25002KT 04/M04 A3019 RMK A01 T00401038  RH  057%=      5-min Rain = 0
KES1 171525Z 25003KT 04/M04 A3019 RMK A01 T00411038  RH  056%=      5-min Rain = 0
KES1 171526Z 24003KT 04/M04 A302 RMK A01 T00411039  RH  056%=      5-min Rain = 0
KES1 171527Z 24003KT 04/M04 A302 RMK A01 T00411040  RH  056%=      5-min Rain = 0
KES1 171528Z 24003KT 04/M04 A3019 RMK A01 T00411039  RH  056%=      5-min Rain = 0
KES1 171529Z 25003KT 04/M04 A3019 RMK A01 T00411040  RH  055%=      5-min Rain = 0
KES1 171530Z 26003KT 04/M04 A3019 RMK A01 T00411040  RH  055%=      5-min Rain = 0
KES1 171531Z 26003KT 04/M04 A3019 RMK A01 T00411039  RH  056%=      5-min Rain = 0
KES1 171532Z 25002KT 04/M04 A3019 RMK A01 T00431038  RH  056%=      5-min Rain = 0
KES1 171533Z 25003KT 04/M04 A3019 RMK A01 T00431037  RH  056%=      5-min Rain = 0
KES1 171534Z 26004KT 04/M04 A3019 RMK A01 T00441039  RH  055%=      5-min Rain = 0
KES1 171535Z 25003KT 04/M04 A3019 RMK A01 T00441041  RH  054%=      5-min Rain = 0
KES1 171536Z 25002KT 04/M04 A3019 RMK A01 T00441040  RH  055%=      5-min Rain = 0
KES1 171537Z 25002KT 04/M04 A3019 RMK A01 T00441039  RH  055%=      5-min Rain = 0
KES1 171538Z 26003KT 04/M04 A3019 RMK A01 T00441039  RH  055%=      5-min Rain = 0
KES1 171539Z 25003KT 05/M04 A3019 RMK A01 T00451039  RH  054%=      5-min Rain = 0
KES1 171540Z 24003KT 05/M04 A302 RMK A01 T00451040  RH  054%=      5-min Rain = 0
KES1 171541Z 24004KT 05/M04 A302 RMK A01 T00451039  RH  055%=      5-min Rain = 0
KES1 171542Z 24004KT 05/M04 A302 RMK A01 T00451040  RH  054%=      5-min Rain = 0
KES1 171543Z 24005KT 05/M04 A302 RMK A01 T00451040  RH  054%=      5-min Rain = 0
KES1 171544Z 25005KT 05/M04 A302 RMK A01 T00451039  RH  054%=      5-min Rain = 0
KES1 171545Z 24005KT 05/M04 A302 RMK A01 T00461039  RH  054%=      5-min Rain = 0
KES1 171546Z 24005KT 05/M04 A302 RMK A01 T00461039  RH  054%=      5-min Rain = 0
KES1 171547Z 24005KT 05/M04 A302 RMK A01 T00461039  RH  054%=      5-min Rain = 0
KES1 171548Z 25005KT 05/M04 A302 RMK A01 T00471040  RH  054%=      5-min Rain = 0
KES1 171549Z 25005KT 05/M04 A302 RMK A01 T00471040  RH  053%=      5-min Rain = 0
KES1 171550Z 26005KT 05/M04 A302 RMK A01 T00471039  RH  054%=      5-min Rain = 0
KES1 171551Z 25005KT 05/M04 A302 RMK A01 T00481038  RH  054%=      5-min Rain = 0
KES1 171552Z 25004KT 05/M04 A302 RMK A01 T00491038  RH  053%=      5-min Rain = 0
KES1 171553Z 26005KT 05/M04 A302 RMK A01 T00491038  RH  053%=      5-min Rain = 0
KES1 171554Z 25004KT 05/M04 A302 RMK A01 T00501038  RH  053%=      5-min Rain = 0
KES1 171555Z 26005KT 05/M04 A302 RMK A01 T00501038  RH  053%=      5-min Rain = 0
KES1 171556Z 26005KT 05/M04 A302 RMK A01 T00511037  RH  053%=      5-min Rain = 0
KES1 171557Z 26005KT 05/M04 A3021 RMK A01 T00521036  RH  053%=      5-min Rain = 0
KES1 171558Z 26006KT 05/M04 A3021 RMK A01 T00531037  RH  052%=      5-min Rain = 0
KES1 171559Z 26005KT 05/M04 A3021 RMK A01 T00521036  RH  053%=      5-min Rain = 0
KES1 171600Z 26005KT 05/M04 A3021 RMK A01 T00541036  RH  052%=      5-min Rain = 0
KES1 171601Z 28005KT 06/M04 A3021 RMK A01 T00551036  RH  052%=      5-min Rain = 0
KES1 171602Z 27005KT 06/M04 A302 RMK A01 T00551037  RH  051%=      5-min Rain = 0
KES1 171603Z 28005KT 06/M04 A302 RMK A01 T00561036  RH  051%=      5-min Rain = 0
KES1 171604Z 28005KT 06/M04 A302 RMK A01 T00571038  RH  051%=      5-min Rain = 0
KES1 171605Z 28005KT 06/M04 A302 RMK A01 T00571038  RH  051%=      5-min Rain = 0
KES1 171606Z 27006KT 06/M04 A302 RMK A01 T00571038  RH  050%=      5-min Rain = 0
KES1 171607Z 28008KT 06/M04 A302 RMK A01 T00571040  RH  050%=      5-min Rain = 0
KES1 171608Z 28008KT 06/M04 A302 RMK A01 T00561042  RH  049%=      5-min Rain = 0
KES1 171609Z 27006KT 06/M04 A302 RMK A01 T00561041  RH  049%=      5-min Rain = 0
KES1 171610Z 27005KT 06/M04 A302 RMK A01 T00561040  RH  050%=      5-min Rain = 0
KES1 171611Z 29005KT 06/M04 A302 RMK A01 T00571038  RH  050%=      5-min Rain = 0
KES1 171612Z 28005KT 06/M04 A302 RMK A01 T00581037  RH  050%=      5-min Rain = 0
KES1 171613Z 27006KT 06/M04 A302 RMK A01 T00591038  RH  050%=      5-min Rain = 0
KES1 171614Z 28006KT 06/M04 A302 RMK A01 T00601039  RH  049%=      5-min Rain = 0
KES1 171615Z 27006KT 06/M04 A302 RMK A01 T00601040  RH  049%=      5-min Rain = 0
KES1 171616Z 28007KT 06/M04 A302 RMK A01 T00601040  RH  049%=      5-min Rain = 0
KES1 171617Z 28006KT 06/M04 A302 RMK A01 T00601040  RH  049%=      5-min Rain = 0
KES1 171618Z 28007KT 06/M04 A302 RMK A01 T00601039  RH  049%=      5-min Rain = 0
KES1 171619Z 29006KT 06/M04 A302 RMK A01 T00601039  RH  049%=      5-min Rain = 0
KES1 171620Z 28004KT 06/M04 A302 RMK A01 T00611039  RH  049%=      5-min Rain = 0
KES1 171621Z 28006KT 06/M04 A3021 RMK A01 T00621038  RH  049%=      5-min Rain = 0
KES1 171622Z 29006KT 06/M04 A3021 RMK A01 T00611038  RH  049%=      5-min Rain = 0
KES1 171623Z 27005KT 06/M04 A3021 RMK A01 T00621037  RH  049%=      5-min Rain = 0
KES1 171624Z 27006KT 06/M04 A3021 RMK A01 T00631036  RH  049%=      5-min Rain = 0
KES1 171625Z 28005KT 06/M04 A3021 RMK A01 T00631037  RH  049%=      5-min Rain = 0
KES1 171626Z 27005KT 06/M04 A3021 RMK A01 T00641035  RH  049%=      5-min Rain = 0
KES1 171627Z 27005KT 07/M04 A3021 RMK A01 T00651036  RH  048%=      5-min Rain = 0
KES1 171628Z 28004KT 07/M04 A3021 RMK A01 T00651038  RH  048%=      5-min Rain = 0
KES1 171629Z 27004KT 07/M04 A3021 RMK A01 T00651036  RH  049%=      5-min Rain = 0
KES1 171630Z 27004KT 07/M03 A3021 RMK A01 T00661034  RH  049%=      5-min Rain = 0
KES1 171631Z 27006KT 07/M04 A3021 RMK A01 T00671036  RH  048%=      5-min Rain = 0
KES1 171632Z 27006KT 07/M04 A3021 RMK A01 T00681038  RH  047%=      5-min Rain = 0
KES1 171633Z 27008KT 07/M04 A3021 RMK A01 T00671039  RH  047%=      5-min Rain = 0
KES1 171634Z 27007KT 07/M04 A3021 RMK A01 T00661040  RH  047%=      5-min Rain = 0
KES1 171635Z 28006KT 07/M04 A3021 RMK A01 T00661039  RH  047%=      5-min Rain = 0
KES1 171636Z 28006KT 07/M04 A3021 RMK A01 T00661039  RH  047%=      5-min Rain = 0
KES1 171637Z 27005KT 07/M04 A3021 RMK A01 T00661038  RH  047%=      5-min Rain = 0
KES1 171638Z 27005KT 07/M04 A3021 RMK A01 T00671037  RH  047%=      5-min Rain = 0
KES1 171639Z 27006KT 07/M04 A3021 RMK A01 T00681037  RH  047%=      5-min Rain = 0
KES1 171640Z 27007KT 07/M04 A3021 RMK A01 T00681038  RH  046%=      5-min Rain = 0
KES1 171641Z 27006KT 07/M04 A3021 RMK A01 T00681038  RH  047%=      5-min Rain = 0
KES1 171642Z 27006KT 07/M04 A3021 RMK A01 T00681036  RH  047%=      5-min Rain = 0
KES1 171643Z 27006KT 07/M04 A3021 RMK A01 T00701036  RH  047%=      5-min Rain = 0
KES1 171644Z 27007KT 07/M04 A3021 RMK A01 T00701037  RH  046%=      5-min Rain = 0
KES1 171645Z 27007KT 07/M04 A3021 RMK A01 T00701038  RH  046%=      5-min Rain = 0
KES1 171646Z 28006KT 07/M04 A3021 RMK A01 T00701038  RH  046%=      5-min Rain = 0
KES1 171647Z 27007KT 07/M04 A3021 RMK A01 T00711038  RH  046%=      5-min Rain = 0
KES1 171648Z 28005KT 07/M04 A3021 RMK A01 T00711037  RH  046%=      5-min Rain = 0
KES1 171649Z 29005KT 07/M04 A3021 RMK A01 T00721035  RH  046%=      5-min Rain = 0
KES1 171650Z 28008KT 07/M04 A3021 RMK A01 T00741035  RH  046%=      5-min Rain = 0
KES1 171651Z 30007KT 07/M04 A3021 RMK A01 T00741036  RH  046%=      5-min Rain = 0
KES1 171652Z 29006KT 07/M04 A3021 RMK A01 T00741036  RH  046%=      5-min Rain = 0
KES1 171653Z 30008KT 07/M04 A3021 RMK A01 T00741036  RH  046%=      5-min Rain = 0
KES1 171654Z 29008KT 07/M04 A3021 RMK A01 T00741036  RH  045%=      5-min Rain = 0
KES1 171655Z 30007KT 07/M04 A3021 RMK A01 T00741037  RH  045%=      5-min Rain = 0
KES1 171656Z 29006KT 07/M04 A3021 RMK A01 T00741037  RH  045%=      5-min Rain = 0
KES1 171657Z 29006KT 08/M04 A3021 RMK A01 T00751036  RH  045%=      5-min Rain = 0
KES1 171658Z 29007KT 08/M04 A3021 RMK A01 T00761036  RH  045%=      5-min Rain = 0
KES1 171659Z 29008KT 08/M04 A3021 RMK A01 T00771036  RH  045%=      5-min Rain = 0
KES1 171700Z 30008KT 08/M04 A3021 RMK A01 T00771037  RH  044%=      5-min Rain = 0
KES1 171701Z 29006KT 08/M04 A3021 RMK A01 T00771039  RH  044%=      5-min Rain = 0
KES1 171702Z 29007KT 08/M04 A3021 RMK A01 T00771037  RH  044%=      5-min Rain = 0
KES1 171703Z 29008KT 08/M04 A3021 RMK A01 T00781036  RH  044%=      5-min Rain = 0
KES1 171704Z 29007KT 08/M04 A3021 RMK A01 T00781037  RH  044%=      5-min Rain = 0
KES1 171705Z 29007KT 08/M04 A3021 RMK A01 T00771036  RH  045%=      5-min Rain = 0
KES1 171706Z 29007KT 08/M04 A3021 RMK A01 T00781036  RH  044%=      5-min Rain = 0
KES1 171707Z 30007KT 08/M04 A3021 RMK A01 T00791038  RH  044%=      5-min Rain = 0
KES1 171708Z 29008KT 08/M04 A302 RMK A01 T00791038  RH  043%=      5-min Rain = 0
KES1 171709Z 29007KT 08/M04 A302 RMK A01 T00791039  RH  043%=      5-min Rain = 0
KES1 171710Z 29008KT 08/M04 A302 RMK A01 T00791038  RH  043%=      5-min Rain = 0
KES1 171711Z 29007KT 08/M04 A302 RMK A01 T00801037  RH  043%=      5-min Rain = 0
KES1 171712Z 29008KT 08/M04 A302 RMK A01 T00801037  RH  044%=      5-min Rain = 0
KES1 171713Z 29008KT 08/M04 A302 RMK A01 T00801037  RH  043%=      5-min Rain = 0
KES1 171714Z 29007KT 08/M04 A302 RMK A01 T00811037  RH  043%=      5-min Rain = 0
KES1 171715Z 29006KT 08/M04 A302 RMK A01 T00821038  RH  043%=      5-min Rain = 0
KES1 171716Z 29007KT 08/M04 A302 RMK A01 T00821037  RH  043%=      5-min Rain = 0
KES1 171717Z 29006KT 08/M04 A302 RMK A01 T00831036  RH  043%=      5-min Rain = 0
KES1 171718Z 28008KT 08/M04 A302 RMK A01 T00841037  RH  042%=      5-min Rain = 0
KES1 171719Z 29007KT 08/M04 A302 RMK A01 T00841038  RH  042%=      5-min Rain = 0
KES1 171720Z 29008KT 08/M04 A302 RMK A01 T00841038  RH  042%=      5-min Rain = 0
KES1 171721Z 29009KT 08/M04 A302 RMK A01 T00841037  RH  042%=      5-min Rain = 0
KES1 171722Z 29008KT 08/M04 A302 RMK A01 T00841037  RH  042%=      5-min Rain = 0
KES1 171723Z 29007KT 08/M04 A302 RMK A01 T00841038  RH  042%=      5-min Rain = 0
KES1 171724Z 30007KT 08/M04 A302 RMK A01 T00841038  RH  042%=      5-min Rain = 0
KES1 171725Z 29007KT 08/M04 A302 RMK A01 T00841037  RH  042%=      5-min Rain = 0
KES1 171726Z 28008KT 09/M04 A302 RMK A01 T00851036  RH  042%=      5-min Rain = 0
KES1 171727Z 27007KT 09/M04 A302 RMK A01 T00851037  RH  042%=      5-min Rain = 0
KES1 171728Z 28006KT 09/M04 A302 RMK A01 T00851037  RH  042%=      5-min Rain = 0
KES1 171729Z 28005KT 09/M03 A302 RMK A01 T00851034  RH  043%=      5-min Rain = 0
KES1 171730Z 28006KT 09/M04 A302 RMK A01 T00871036  RH  042%=      5-min Rain = 0
KES1 171731Z 27006KT 09/M04 A3019 RMK A01 T00871038  RH  041%=      5-min Rain = 0
KES1 171732Z 27007KT 09/M04 A3019 RMK A01 T00861037  RH  041%=      5-min Rain = 0
KES1 171733Z 27007KT 09/M04 A3019 RMK A01 T00871038  RH  041%=      5-min Rain = 0
KES1 171734Z 29008KT 09/M04 A3019 RMK A01 T00871039  RH  041%=      5-min Rain = 0
KES1 171735Z 30007KT 09/M04 A3019 RMK A01 T00861039  RH  041%=      5-min Rain = 0
KES1 171736Z 31006KT 09/M04 A3019 RMK A01 T00861038  RH  041%=      5-min Rain = 0
KES1 171737Z 30006KT 09/M04 A3019 RMK A01 T00871037  RH  041%=      5-min Rain = 0
KES1 171738Z 30006KT 09/M04 A3019 RMK A01 T00881039  RH  041%=      5-min Rain = 0
KES1 171739Z 29006KT 09/M04 A3019 RMK A01 T00881039  RH  041%=      5-min Rain = 0
KES1 171740Z 29006KT 09/M04 A3019 RMK A01 T00891037  RH  041%=      5-min Rain = 0
KES1 171741Z 28005KT 09/M04 A3019 RMK A01 T00901036  RH  041%=      5-min Rain = 0
KES1 171742Z 28003G8KT 09/M04 A3019 RMK A01 T00911036  RH  041%=      5-min Rain = 0
KES1 171743Z 29006KT 09/M04 A3019 RMK A01 T00921035  RH  040%=      5-min Rain = 0
KES1 171744Z 28006KT 09/M04 A3019 RMK A01 T00931036  RH  040%=      5-min Rain = 0
KES1 171745Z 27006KT 09/M04 A3019 RMK A01 T00931039  RH  039%=      5-min Rain = 0
KES1 171746Z 29006KT 09/M04 A3019 RMK A01 T00931039  RH  039%=      5-min Rain = 0
KES1 171747Z 30005KT 09/M04 A3019 RMK A01 T00931039  RH  039%=      5-min Rain = 0
KES1 171748Z 31006KT 09/M04 A3019 RMK A01 T00931038  RH  039%=      5-min Rain = 0
KES1 171749Z 31006KT 09/M04 A3019 RMK A01 T00941038  RH  039%=      5-min Rain = 0
KES1 171750Z 31007KT 10/M04 A3018 RMK A01 T00951038  RH  039%=      5-min Rain = 0
KES1 171751Z 32005KT 10/M04 A3018 RMK A01 T00961037  RH  039%=      5-min Rain = 0
KES1 171752Z 32005KT 10/M04 A3018 RMK A01 T00971037  RH  038%=      5-min Rain = 0
KES1 171753Z 29006KT 10/M04 A3018 RMK A01 T00981037  RH  038%=      5-min Rain = 0
KES1 171754Z 28008KT 10/M04 A3018 RMK A01 T00991039  RH  038%=      5-min Rain = 0
KES1 171755Z 28006KT 10/M04 A3018 RMK A01 T00981040  RH  037%=      5-min Rain = 0
KES1 171756Z 29005KT 10/M04 A3018 RMK A01 T00981040  RH  038%=      5-min Rain = 0
KES1 171757Z 30008KT 10/M04 A3018 RMK A01 T00981039  RH  038%=      5-min Rain = 0
KES1 171758Z 31008KT 10/M04 A3018 RMK A01 T00981039  RH  038%=      5-min Rain = 0
KES1 171759Z 31007KT 10/M04 A3018 RMK A01 T00981039  RH  038%=      5-min Rain = 0
KES1 171800Z 33005KT 10/M04 A3018 RMK A01 T00971041  RH  037%=      5-min Rain = 0
KES1 171801Z 30004KT 10/M04 A3018 RMK A01 T00961039  RH  038%=      5-min Rain = 0
KES1 171802Z 28004KT 10/M04 A3018 RMK A01 T00961040  RH  038%=      5-min Rain = 0
KES1 171803Z 28007G12KT 10/M04 A3018 RMK A01 T00981038  RH  038%=      5-min Rain = 0
KES1 171804Z 27007KT 10/M04 A3018 RMK A01 T00991039  RH  037%=      5-min Rain = 0
KES1 171805Z 31006KT 10/M04 A3018 RMK A01 T01001038  RH  038%=      5-min Rain = 0
KES1 171806Z 30005KT 10/M03 A3018 RMK A01 T01031033  RH  038%=      5-min Rain = 0
KES1 171807Z 32005KT 11/M04 A3018 RMK A01 T01061036  RH  037%=      5-min Rain = 0
KES1 171808Z 33006KT 10/M04 A3017 RMK A01 T01041041  RH  036%=      5-min Rain = 0
KES1 171809Z 28005KT 10/M04 A3017 RMK A01 T01021038  RH  037%=      5-min Rain = 0
KES1 171810Z 29004KT 10/M04 A3017 RMK A01 T01041037  RH  037%=      5-min Rain = 0
KES1 171811Z 29004KT 11/M04 A3017 RMK A01 T01061039  RH  036%=      5-min Rain = 0
KES1 171812Z 28005KT 11/M04 A3017 RMK A01 T01051041  RH  036%=      5-min Rain = 0
KES1 171813Z 28006KT 10/M04 A3017 RMK A01 T01041039  RH  036%=      5-min Rain = 0
KES1 171814Z 29007KT 11/M04 A3017 RMK A01 T01051039  RH  036%=      5-min Rain = 0
KES1 171815Z 32005KT 11/M04 A3017 RMK A01 T01061042  RH  035%=      5-min Rain = 0
KES1 171816Z 30004KT 11/M04 A3017 RMK A01 T01061042  RH  035%=      5-min Rain = 0
KES1 171817Z 31003KT 11/M04 A3017 RMK A01 T01051042  RH  035%=      5-min Rain = 0
KES1 171818Z 31005KT 11/M04 A3017 RMK A01 T01051042  RH  035%=      5-min Rain = 0
KES1 171819Z 34005KT 11/M05 A3017 RMK A01 T01071046  RH  034%=      5-min Rain = 0
KES1 171820Z 35007KT 11/M05 A3017 RMK A01 T01071045  RH  034%=      5-min Rain = 0
KES1 171821Z 34009KT 11/M05 A3016 RMK A01 T01071047  RH  033%=      5-min Rain = 0
KES1 171822Z 35006KT 11/M05 A3016 RMK A01 T01061052  RH  033%=      5-min Rain = 0
KES1 171823Z 36005KT 10/M05 A3016 RMK A01 T01041051  RH  033%=      5-min Rain = 0
KES1 171824Z 35007KT 11/M05 A3016 RMK A01 T01051050  RH  033%=      5-min Rain = 0
KES1 171825Z 35006KT 10/M05 A3016 RMK A01 T01041048  RH  034%=      5-min Rain = 0
KES1 171826Z 01003KT 10/M05 A3016 RMK A01 T01041048  RH  034%=      5-min Rain = 0
KES1 171827Z 32004G10KT 10/M05 A3016 RMK A01 T01041048  RH  034%=      5-min Rain = 0
KES1 171828Z 31011KT 11/M05 A3016 RMK A01 T01071045  RH  034%=      5-min Rain = 0
KES1 171829Z 32008KT 11/M05 A3016 RMK A01 T01101048  RH  033%=      5-min Rain = 0
KES1 171830Z 32007KT 11/M05 A3016 RMK A01 T01111050  RH  032%=      5-min Rain = 0
KES1 171831Z 32008KT 11/M05 A3015 RMK A01 T01111050  RH  032%=      5-min Rain = 0
KES1 171832Z 32007KT 11/M05 A3015 RMK A01 T01101050  RH  032%=      5-min Rain = 0
KES1 171833Z 32008KT 11/M05 A3015 RMK A01 T01091049  RH  033%=      5-min Rain = 0
KES1 171834Z 31008KT 11/M05 A3015 RMK A01 T01091049  RH  033%=      5-min Rain = 0
KES1 171835Z 31008KT 11/M05 A3015 RMK A01 T01101047  RH  033%=      5-min Rain = 0
KES1 171836Z 31007KT 11/M04 A3015 RMK A01 T01121043  RH  033%=      5-min Rain = 0
KES1 171837Z 32008KT 11/M05 A3015 RMK A01 T01131047  RH  032%=      5-min Rain = 0
KES1 171838Z 32005KT 11/M05 A3015 RMK A01 T01101049  RH  032%=      5-min Rain = 0
KES1 171839Z 31006KT 11/M05 A3015 RMK A01 T01101045  RH  033%=      5-min Rain = 0
KES1 171840Z 31008KT 11/M05 A3015 RMK A01 T01131045  RH  033%=      5-min Rain = 0
KES1 171841Z 34009KT 12/M05 A3015 RMK A01 T01161048  RH  031%=      5-min Rain = 0
KES1 171842Z 35008KT 11/M05 A3015 RMK A01 T01141052  RH  031%=      5-min Rain = 0
KES1 171843Z 31005KT 11/M06 A3015 RMK A01 T01101055  RH  031%=      5-min Rain = 0
KES1 171844Z 32005KT 11/M05 A3015 RMK A01 T01091054  RH  031%=      5-min Rain = 0
KES1 171845Z 00004KT 11/M05 A3015 RMK A01 T01091053  RH  032%=      5-min Rain = 0
KES1 171846Z 35004KT 11/M05 A3015 RMK A01 T01091051  RH  032%=      5-min Rain = 0
KES1 171847Z 30006KT 11/M05 A3014 RMK A01 T01101048  RH  033%=      5-min Rain = 0
KES1 171848Z 31006KT 11/M05 A3014 RMK A01 T01131046  RH  032%=      5-min Rain = 0
KES1 171849Z 32004KT 11/M05 A3014 RMK A01 T01131050  RH  032%=      5-min Rain = 0
KES1 171850Z 32004KT 11/M05 A3014 RMK A01 T01131049  RH  032%=      5-min Rain = 0
KES1 171851Z 33002KT 11/M05 A3014 RMK A01 T01121051  RH  031%=      5-min Rain = 0
KES1 171852Z 33005G10KT 11/M05 A3014 RMK A01 T01121051  RH  031%=      5-min Rain = 0
KES1 171853Z 33006KT 11/M05 A3014 RMK A01 T01131050  RH  031%=      5-min Rain = 0
KES1 171854Z 32006KT 11/M05 A3014 RMK A01 T01141052  RH  031%=      5-min Rain = 0
KES1 171855Z 33007KT 12/M05 A3014 RMK A01 T01161048  RH  031%=      5-min Rain = 0
KES1 171856Z 33007KT 12/M05 A3014 RMK A01 T01181052  RH  030%=      5-min Rain = 0
KES1 171857Z 00007KT 12/M05 A3014 RMK A01 T01171054  RH  030%=      5-min Rain = 0
KES1 171858Z 36004KT 12/M06 A3013 RMK A01 T01161060  RH  029%=      5-min Rain = 0
KES1 171859Z 02004KT 11/M06 A3013 RMK A01 T01141058  RH  030%=      5-min Rain = 0
KES1 171900Z 36003KT 12/M06 A3013 RMK A01 T01151057  RH  030%=      5-min Rain = 0
KES1 171901Z 35006KT 12/M05 A3013 RMK A01 T01151054  RH  030%=      5-min Rain = 0
KES1 171902Z 34008KT 12/M06 A3013 RMK A01 T01171059  RH  029%=      5-min Rain = 0
KES1 171903Z 36010KT 12/M06 A3013 RMK A01 T01171064  RH  028%=      5-min Rain = 0
KES1 171904Z 35007KT 12/M07 A3013 RMK A01 T01171065  RH  027%=      5-min Rain = 0
KES1 171905Z 35010KT 12/M07 A3013 RMK A01 T01171065  RH  027%=      5-min Rain = 0
KES1 171906Z 35011KT 12/M06 A3013 RMK A01 T01171064  RH  028%=      5-min Rain = 0
KES1 171907Z 36008G13KT 12/M07 A3013 RMK A01 T01181066  RH  027%=      5-min Rain = 0
KES1 171908Z 35010KT 12/M07 A3013 RMK A01 T01161065  RH  027%=      5-min Rain = 0
KES1 171909Z 33006KT 12/M06 A3013 RMK A01 T01171063  RH  028%=      5-min Rain = 0
KES1 171910Z 32007KT 12/M06 A3013 RMK A01 T01181062  RH  028%=      5-min Rain = 0
KES1 171911Z 32007KT 12/M06 A3013 RMK A01 T01181064  RH  027%=      5-min Rain = 0
KES1 171912Z 35009KT 12/M06 A3013 RMK A01 T01191063  RH  027%=      5-min Rain = 0
KES1 171913Z 00008KT 12/M07 A3013 RMK A01 T01191068  RH  026%=      5-min Rain = 0
KES1 171914Z 35008KT 12/M07 A3013 RMK A01 T01161069  RH  027%=      5-min Rain = 0
KES1 171915Z 35008KT 12/M07 A3013 RMK A01 T01161067  RH  027%=      5-min Rain = 0
KES1 171916Z 35005KT 12/M07 A3013 RMK A01 T01161068  RH  027%=      5-min Rain = 0
KES1 171917Z 34005KT 12/M07 A3013 RMK A01 T01161066  RH  027%=      5-min Rain = 0
KES1 171918Z 32008KT 12/M07 A3013 RMK A01 T01171068  RH  027%=      5-min Rain = 0
KES1 171919Z 35006KT 12/M07 A3013 RMK A01 T01191067  RH  027%=      5-min Rain = 0
KES1 171920Z 34008KT 12/M07 A3013 RMK A01 T01201068  RH  026%=      5-min Rain = 0
KES1 171921Z 34009KT 12/M07 A3013 RMK A01 T01201071  RH  026%=      5-min Rain = 0
KES1 171922Z 33008KT 12/M07 A3013 RMK A01 T01181072  RH  026%=      5-min Rain = 0
KES1 171923Z 31006KT 12/M07 A3013 RMK A01 T01191073  RH  026%=      5-min Rain = 0
KES1 171924Z 33007KT 12/M07 A3013 RMK A01 T01201073  RH  025%=      5-min Rain = 0
KES1 171925Z 01007KT 12/M07 A3013 RMK A01 T01201071  RH  026%=      5-min Rain = 0
KES1 171926Z 01004KT 12/M07 A3013 RMK A01 T01211071  RH  025%=      5-min Rain = 0
KES1 171927Z 00007KT 12/M07 A3013 RMK A01 T01211071  RH  025%=      5-min Rain = 0
KES1 171928Z 32006KT 12/M07 A3013 RMK A01 T01221071  RH  025%=      5-min Rain = 0
KES1 171929Z 33005KT 12/M07 A3013 RMK A01 T01211074  RH  025%=      5-min Rain = 0
KES1 171930Z 35006KT 12/M07 A3013 RMK A01 T01201074  RH  025%=      5-min Rain = 0
KES1 171931Z 36008KT 12/M07 A3013 RMK A01 T01181071  RH  026%=      5-min Rain = 0
KES1 171932Z 36008KT 12/M07 A3013 RMK A01 T01191072  RH  026%=      5-min Rain = 0
KES1 171933Z 35005KT 12/M07 A3012 RMK A01 T01181074  RH  025%=      5-min Rain = 0
KES1 171934Z 34008G13KT 12/M07 A3012 RMK A01 T01181073  RH  025%=      5-min Rain = 0
KES1 171935Z 33011KT 12/M07 A3012 RMK A01 T01201073  RH  025%=      5-min Rain = 0
KES1 171936Z 34008KT 12/M08 A3012 RMK A01 T01201075  RH  025%=      5-min Rain = 0
KES1 171937Z 33007KT 12/M07 A3012 RMK A01 T01201074  RH  025%=      5-min Rain = 0
KES1 171938Z 36007KT 12/M07 A3012 RMK A01 T01211073  RH  025%=      5-min Rain = 0
KES1 171939Z 36010KT 12/M07 A3012 RMK A01 T01221070  RH  025%=      5-min Rain = 0
KES1 171940Z 00010KT 12/M07 A3012 RMK A01 T01221074  RH  025%=      5-min Rain = 0
KES1 171941Z 02009KT 12/M07 A3012 RMK A01 T01211074  RH  025%=      5-min Rain = 0
KES1 171942Z 00007KT 12/M07 A3012 RMK A01 T01221073  RH  025%=      5-min Rain = 0
KES1 171943Z 01007KT 12/M07 A3012 RMK A01 T01241070  RH  025%=      5-min Rain = 0
KES1 171944Z 35005KT 13/M07 A3012 RMK A01 T01251073  RH  024%=      5-min Rain = 0
KES1 171945Z 35004KT 12/M07 A3012 RMK A01 T01221074  RH  025%=      5-min Rain = 0
KES1 171946Z 01005KT 12/M07 A3012 RMK A01 T01221069  RH  026%=      5-min Rain = 0
KES1 171947Z 01006KT 13/M07 A3012 RMK A01 T01251067  RH  026%=      5-min Rain = 0
KES1 171948Z 01006KT 13/M07 A3012 RMK A01 T01281068  RH  025%=      5-min Rain = 0
KES1 171949Z 35006KT 13/M07 A3012 RMK A01 T01281071  RH  024%=      5-min Rain = 0
KES1 171950Z 35005KT 13/M07 A3012 RMK A01 T01251072  RH  024%=      5-min Rain = 0
KES1 171951Z 36007KT 12/M07 A3012 RMK A01 T01241070  RH  025%=      5-min Rain = 0
KES1 171952Z 35006KT 13/M07 A3012 RMK A01 T01251069  RH  025%=      5-min Rain = 0
KES1 171953Z 35004KT 13/M07 A3011 RMK A01 T01261068  RH  025%=      5-min Rain = 0
KES1 171954Z 03006KT 13/M07 A3011 RMK A01 T01271066  RH  026%=      5-min Rain = 0
KES1 171955Z 31005KT 13/M07 A3011 RMK A01 T01281066  RH  025%=      5-min Rain = 0
KES1 171956Z 31004KT 13/M07 A3011 RMK A01 T01301067  RH  025%=      5-min Rain = 0
KES1 171957Z 34004KT 13/M07 A3011 RMK A01 T01321067  RH  024%=      5-min Rain = 0
KES1 171958Z 01006KT 13/M07 A3011 RMK A01 T01311070  RH  024%=      5-min Rain = 0
KES1 171959Z 34006KT 13/M07 A3011 RMK A01 T01291069  RH  025%=      5-min Rain = 0
KES1 172000Z 32004G9KT 13/M07 A3011 RMK A01 T01291070  RH  024%=      5-min Rain = 0
KES1 172001Z 31009KT 13/M07 A3011 RMK A01 T01291068  RH  025%=      5-min Rain = 0
KES1 172002Z 31008KT 13/M07 A3011 RMK A01 T01321067  RH  025%=      5-min Rain = 0
KES1 172003Z 30008KT 13/M07 A3011 RMK A01 T01321069  RH  024%=      5-min Rain = 0
KES1 172004Z 30006KT 13/M07 A3011 RMK A01 T01311068  RH  024%=      5-min Rain = 0
KES1 172005Z 31006KT 13/M07 A3011 RMK A01 T01331066  RH  024%=      5-min Rain = 0
KES1 172006Z 33007KT 13/M07 A3011 RMK A01 T01341067  RH  024%=      5-min Rain = 0
KES1 172007Z 32009KT 13/M07 A3011 RMK A01 T01321070  RH  024%=      5-min Rain = 0
KES1 172008Z 32009KT 13/M07 A3011 RMK A01 T01291071  RH  024%=      5-min Rain = 0
KES1 172009Z 31008KT 13/M07 A3011 RMK A01 T01281070  RH  024%=      5-min Rain = 0
KES1 172010Z 31006KT 13/M07 A3011 RMK A01 T01291069  RH  025%=      5-min Rain = 0
KES1 172011Z 35008KT 13/M07 A3011 RMK A01 T01291071  RH  024%=      5-min Rain = 0
KES1 172012Z 34006KT 13/M07 A3011 RMK A01 T01261073  RH  024%=      5-min Rain = 0
KES1 172013Z 32006KT 12/M07 A3011 RMK A01 T01231074  RH  025%=      5-min Rain = 0
KES1 172014Z 32005KT 12/M07 A3011 RMK A01 T01231072  RH  025%=      5-min Rain = 0
KES1 172015Z 32008KT 13/M07 A301 RMK A01 T01251070  RH  025%=      5-min Rain = 0
KES1 172016Z 32004KT 13/M07 A301 RMK A01 T01271070  RH  025%=      5-min Rain = 0
KES1 172017Z 32004KT 13/M07 A301 RMK A01 T01281069  RH  025%=      5-min Rain = 0
KES1 172018Z 32006KT 13/M07 A301 RMK A01 T01291066  RH  025%=      5-min Rain = 0
KES1 172019Z 32009KT 13/M07 A301 RMK A01 T01301067  RH  025%=      5-min Rain = 0
KES1 172020Z 31006KT 13/M07 A301 RMK A01 T01301069  RH  024%=      5-min Rain = 0
KES1 172021Z 33004KT 13/M07 A301 RMK A01 T01291069  RH  025%=      5-min Rain = 0
KES1 172022Z 33005KT 13/M07 A301 RMK A01 T01291068  RH  025%=      5-min Rain = 0
KES1 172023Z 31004KT 13/M07 A301 RMK A01 T01291069  RH  025%=      5-min Rain = 0
KES1 172024Z 30007KT 13/M07 A301 RMK A01 T01291067  RH  025%=      5-min Rain = 0
KES1 172025Z 32007KT 13/M07 A301 RMK A01 T01311067  RH  025%=      5-min Rain = 0
KES1 172026Z 35007KT 13/M07 A301 RMK A01 T01311069  RH  024%=      5-min Rain = 0
KES1 172027Z 01005KT 13/M07 A301 RMK A01 T01291071  RH  024%=      5-min Rain = 0
KES1 172028Z 33005KT 13/M07 A301 RMK A01 T01281070  RH  025%=      5-min Rain = 0
KES1 172029Z 33005KT 13/M07 A301 RMK A01 T01281067  RH  025%=      5-min Rain = 0
KES1 172030Z 32006KT 13/M07 A301 RMK A01 T01291068  RH  025%=      5-min Rain = 0
KES1 172031Z 32004KT 13/M07 A301 RMK A01 T01291072  RH  024%=      5-min Rain = 0
KES1 172032Z 33004KT 13/M07 A301 RMK A01 T01281070  RH  024%=      5-min Rain = 0
KES1 172033Z 33005KT 13/M07 A301 RMK A01 T01291069  RH  025%=      5-min Rain = 0
KES1 172034Z 34006KT 13/M07 A301 RMK A01 T01291069  RH  025%=      5-min Rain = 0
KES1 172035Z 34008KT 13/M07 A301 RMK A01 T01301066  RH  025%=      5-min Rain = 0
KES1 172036Z 01006KT 13/M07 A301 RMK A01 T01311068  RH  024%=      5-min Rain = 0
KES1 172037Z 01005KT 13/M07 A301 RMK A01 T01311069  RH  024%=      5-min Rain = 0
KES1 172038Z 35005KT 13/M07 A301 RMK A01 T01311069  RH  024%=      5-min Rain = 0
KES1 172039Z 31005KT 13/M07 A3009 RMK A01 T01291070  RH  024%=      5-min Rain = 0
KES1 172040Z 30004KT 13/M07 A3009 RMK A01 T01301069  RH  024%=      5-min Rain = 0
KES1 172041Z 31003KT 13/M07 A3009 RMK A01 T01301070  RH  024%=      5-min Rain = 0
KES1 172042Z 31005KT 13/M07 A3009 RMK A01 T01301070  RH  024%=      5-min Rain = 0
KES1 172043Z 32003KT 13/M07 A3009 RMK A01 T01311069  RH  024%=      5-min Rain = 0
KES1 172044Z 33007KT 13/M07 A301 RMK A01 T01331068  RH  024%=      5-min Rain = 0
KES1 172045Z 33007KT 13/M07 A301 RMK A01 T01331069  RH  024%=      5-min Rain = 0
KES1 172046Z 34007KT 13/M07 A301 RMK A01 T01321069  RH  024%=      5-min Rain = 0
KES1 172047Z 34005KT 13/M07 A301 RMK A01 T01311068  RH  024%=      5-min Rain = 0
KES1 172048Z 31004KT 13/M07 A301 RMK A01 T01331066  RH  025%=      5-min Rain = 0
KES1 172049Z 31005KT 14/M07 A301 RMK A01 T01351069  RH  024%=      5-min Rain = 0
KES1 172050Z 30008KT 14/M07 A3009 RMK A01 T01351070  RH  023%=      5-min Rain = 0
KES1 172051Z 32007KT 14/M07 A3009 RMK A01 T01351070  RH  023%=      5-min Rain = 0
KES1 172052Z 31005KT 13/M07 A3009 RMK A01 T01331071  RH  024%=      5-min Rain = 0
KES1 172053Z 31004KT 13/M07 A301 RMK A01 T01331069  RH  024%=      5-min Rain = 0
KES1 172054Z 32007KT 13/M07 A301 RMK A01 T01341070  RH  024%=      5-min Rain = 0
KES1 172055Z 29007KT 13/M07 A301 RMK A01 T01341069  RH  024%=      5-min Rain = 0
KES1 172056Z 30005KT 14/M07 A301 RMK A01 T01351070  RH  023%=      5-min Rain = 0
KES1 172057Z 34004KT 14/M07 A301 RMK A01 T01351071  RH  023%=      5-min Rain = 0
KES1 172058Z 00003KT 14/M07 A301 RMK A01 T01351070  RH  023%=      5-min Rain = 0
KES1 172059Z 33004KT 14/M07 A301 RMK A01 T01351071  RH  023%=      5-min Rain = 0
KES1 172100Z 32004KT 13/M07 A301 RMK A01 T01331071  RH  023%=      5-min Rain = 0
KES1 172101Z 33005KT 13/M07 A301 RMK A01 T01331071  RH  024%=      5-min Rain = 0
KES1 172102Z 33006KT 13/M07 A301 RMK A01 T01331071  RH  023%=      5-min Rain = 0
KES1 172103Z 32004KT 13/M07 A301 RMK A01 T01331069  RH  024%=      5-min Rain = 0
KES1 172104Z 33003KT 13/M07 A301 RMK A01 T01341070  RH  024%=      5-min Rain = 0
KES1 172105Z 33004KT 13/M07 A301 RMK A01 T01341071  RH  023%=      5-min Rain = 0
KES1 172106Z 32005KT 13/M07 A301 RMK A01 T01341072  RH  023%=      5-min Rain = 0
KES1 172107Z 30007KT 13/M07 A301 RMK A01 T01341068  RH  024%=      5-min Rain = 0
KES1 172108Z 28009KT 14/M07 A301 RMK A01 T01361069  RH  023%=      5-min Rain = 0
KES1 172109Z 28009KT 14/M07 A301 RMK A01 T01381068  RH  023%=      5-min Rain = 0
KES1 172110Z 28006KT 14/M07 A301 RMK A01 T01391069  RH  023%=      5-min Rain = 0
KES1 172111Z 27007KT 14/M07 A301 RMK A01 T01381069  RH  023%=      5-min Rain = 0
KES1 172112Z 28007KT 14/M07 A3009 RMK A01 T01391069  RH  023%=      5-min Rain = 0
KES1 172113Z 28007KT 14/M07 A3009 RMK A01 T01381070  RH  023%=      5-min Rain = 0
KES1 172114Z 28006KT 14/M07 A3009 RMK A01 T01381071  RH  023%=      5-min Rain = 0
KES1 172115Z 28006KT 14/M07 A3009 RMK A01 T01381070  RH  023%=      5-min Rain = 0
KES1 172116Z 31007KT 14/M07 A3009 RMK A01 T01391069  RH  023%=      5-min Rain = 0
KES1 172117Z 33007KT 14/M07 A3009 RMK A01 T01411065  RH  023%=      5-min Rain = 0
KES1 172118Z 32007KT 14/M07 A3009 RMK A01 T01401069  RH  023%=      5-min Rain = 0
KES1 172119Z 30006KT 14/M07 A3009 RMK A01 T01381071  RH  023%=      5-min Rain = 0
KES1 172120Z 31004KT 14/M07 A3009 RMK A01 T01381069  RH  023%=      5-min Rain = 0
KES1 172121Z 32002KT 14/M07 A3009 RMK A01 T01381071  RH  023%=      5-min Rain = 0
KES1 172122Z 34004KT 14/M07 A3009 RMK A01 T01371071  RH  023%=      5-min Rain = 0
KES1 172123Z 34004KT 14/M07 A3009 RMK A01 T01351072  RH  023%=      5-min Rain = 0
KES1 172124Z 35002KT 13/M07 A3009 RMK A01 T01341072  RH  023%=      5-min Rain = 0
KES1 172125Z 00000KT 13/M07 A3009 RMK A01 T01331070  RH  024%=      5-min Rain = 0
KES1 172126Z 33002KT 13/M07 A3009 RMK A01 T01341072  RH  023%=      5-min Rain = 0
KES1 172127Z 30007KT 14/M07 A3009 RMK A01 T01361069  RH  023%=      5-min Rain = 0
KES1 172128Z 31006KT 14/M07 A3009 RMK A01 T01391067  RH  023%=      5-min Rain = 0
KES1 172129Z 28008KT 14/M07 A3009 RMK A01 T01401067  RH  023%=      5-min Rain = 0
KES1 172130Z 28007KT 14/M07 A3009 RMK A01 T01411070  RH  023%=      5-min Rain = 0
KES1 172131Z 28007KT 14/M07 A3009 RMK A01 T01401071  RH  023%=      5-min Rain = 0
KES1 172132Z 28005KT 14/M07 A3009 RMK A01 T01401070  RH  023%=      5-min Rain = 0
KES1 172133Z 29006KT 14/M07 A3009 RMK A01 T01411067  RH  023%=      5-min Rain = 0
KES1 172134Z 30006KT 14/M07 A3009 RMK A01 T01421070  RH  022%=      5-min Rain = 0
KES1 172135Z 28006KT 14/M07 A3009 RMK A01 T01411069  RH  023%=      5-min Rain = 0
KES1 172136Z 27006KT 14/M07 A3009 RMK A01 T01411071  RH  022%=      5-min Rain = 0
KES1 172137Z 27005KT 14/M07 A3009 RMK A01 T01411071  RH  022%=      5-min Rain = 0
KES1 172138Z 23003KT 14/M07 A3009 RMK A01 T01401073  RH  022%=      5-min Rain = 0
KES1 172139Z 27003KT 14/M07 A3009 RMK A01 T01401072  RH  022%=      5-min Rain = 0
KES1 172140Z 28005KT 14/M07 A3009 RMK A01 T01401071  RH  022%=      5-min Rain = 0
KES1 172141Z 29004KT 14/M07 A3009 RMK A01 T01421071  RH  022%=      5-min Rain = 0
KES1 172142Z 29002KT 14/M08 A3009 RMK A01 T01391075  RH  022%=      5-min Rain = 0
KES1 172143Z 28001KT 14/M07 A3008 RMK A01 T01381073  RH  023%=      5-min Rain = 0
KES1 172144Z 30001KT 14/M07 A3008 RMK A01 T01381073  RH  022%=      5-min Rain = 0
KES1 172145Z 31002KT 14/M07 A3008 RMK A01 T01381074  RH  022%=      5-min Rain = 0
KES1 172146Z 32003KT 14/M07 A3008 RMK A01 T01381074  RH  022%=      5-min Rain = 0
KES1 172147Z 28004KT 14/M07 A3008 RMK A01 T01391068  RH  023%=      5-min Rain = 0
KES1 172148Z 29005KT 14/M07 A3008 RMK A01 T01421067  RH  023%=      5-min Rain = 0
KES1 172149Z 28004KT 14/M07 A3008 RMK A01 T01431069  RH  022%=      5-min Rain = 0
KES1 172150Z 30004KT 14/M07 A3008 RMK A01 T01421073  RH  022%=      5-min Rain = 0
KES1 172151Z 32002KT 14/M07 A3008 RMK A01 T01411073  RH  022%=      5-min Rain = 0
KES1 172152Z 30002KT 14/M07 A3008 RMK A01 T01401074  RH  022%=      5-min Rain = 0
KES1 172153Z 33003KT 14/M07 A3008 RMK A01 T01391074  RH  022%=      5-min Rain = 0
KES1 172154Z 34002KT 14/M08 A3008 RMK A01 T01371076  RH  022%=      5-min Rain = 0
KES1 172155Z 33002KT 14/M07 A3008 RMK A01 T01351073  RH  023%=      5-min Rain = 0
KES1 172156Z 27004KT 14/M07 A3008 RMK A01 T01361069  RH  023%=      5-min Rain = 0
KES1 172157Z 27006KT 14/M07 A3008 RMK A01 T01391069  RH  023%=      5-min Rain = 0
KES1 172158Z 30008KT 14/M07 A3008 RMK A01 T01421068  RH  023%=      5-min Rain = 0
KES1 172159Z 29007KT 14/M07 A3008 RMK A01 T01421070  RH  022%=      5-min Rain = 0
KES1 172200Z 29005KT 14/M07 A3008 RMK A01 T01411070  RH  022%=      5-min Rain = 0
KES1 172201Z 29004KT 14/M07 A3008 RMK A01 T01401072  RH  022%=      5-min Rain = 0
KES1 172202Z 30003KT 14/M07 A3008 RMK A01 T01401071  RH  023%=      5-min Rain = 0
KES1 172203Z 28004KT 14/M07 A3008 RMK A01 T01401069  RH  023%=      5-min Rain = 0
KES1 172204Z 27003KT 14/M07 A3008 RMK A01 T01411068  RH  023%=      5-min Rain = 0
KES1 172205Z 27004KT 14/M07 A3008 RMK A01 T01411071  RH  022%=      5-min Rain = 0
KES1 172206Z 28005KT 14/M07 A3008 RMK A01 T01411072  RH  022%=      5-min Rain = 0
KES1 172207Z 26004KT 14/M07 A3008 RMK A01 T01391072  RH  023%=      5-min Rain = 0
KES1 172208Z 28003KT 14/M07 A3008 RMK A01 T01391068  RH  023%=      5-min Rain = 0
KES1 172209Z 29004KT 14/M07 A3008 RMK A01 T01401067  RH  023%=      5-min Rain = 0
KES1 172210Z 28004KT 14/M07 A3008 RMK A01 T01421066  RH  023%=      5-min Rain = 0
KES1 172211Z 29005KT 14/M07 A3008 RMK A01 T01421068  RH  023%=      5-min Rain = 0
KES1 172212Z 29008KT 14/M07 A3007 RMK A01 T01421067  RH  023%=      5-min Rain = 0
KES1 172213Z 30009KT 14/M07 A3008 RMK A01 T01421067  RH  023%=      5-min Rain = 0
KES1 172214Z 29007KT 14/M07 A3008 RMK A01 T01401071  RH  023%=      5-min Rain = 0
KES1 172215Z 29005KT 14/M07 A3008 RMK A01 T01381069  RH  023%=      5-min Rain = 0
KES1 172216Z 30003KT 14/M07 A3008 RMK A01 T01391068  RH  023%=      5-min Rain = 0
KES1 172217Z 30004KT 14/M07 A3007 RMK A01 T01391068  RH  023%=      5-min Rain = 0
KES1 172218Z 27003KT 14/M07 A3007 RMK A01 T01391067  RH  023%=      5-min Rain = 0
KES1 172219Z 23003KT 14/M07 A3007 RMK A01 T01401068  RH  023%=      5-min Rain = 0
KES1 172220Z 24004KT 14/M07 A3007 RMK A01 T01421068  RH  023%=      5-min Rain = 0
KES1 172221Z 24004KT 14/M07 A3007 RMK A01 T01421070  RH  022%=      5-min Rain = 0
KES1 172222Z 23004KT 14/M07 A3007 RMK A01 T01421070  RH  022%=      5-min Rain = 0
KES1 172223Z 24003KT 14/M07 A3007 RMK A01 T01421066  RH  023%=      5-min Rain = 0
KES1 172224Z 22005KT 14/M07 A3007 RMK A01 T01431067  RH  023%=      5-min Rain = 0
KES1 172225Z 23005KT 14/M07 A3007 RMK A01 T01441068  RH  022%=      5-min Rain = 0
KES1 172226Z 23006KT 14/M07 A3007 RMK A01 T01441068  RH  023%=      5-min Rain = 0
KES1 172227Z 23005KT 14/M07 A3007 RMK A01 T01421070  RH  022%=      5-min Rain = 0
KES1 172228Z 24007KT 14/M07 A3007 RMK A01 T01411068  RH  023%=      5-min Rain = 0
KES1 172229Z 26004KT 14/M07 A3007 RMK A01 T01411069  RH  023%=      5-min Rain = 0
KES1 172230Z 28003KT 14/M07 A3007 RMK A01 T01411069  RH  023%=      5-min Rain = 0
KES1 172231Z 29001KT 14/M07 A3007 RMK A01 T01401070  RH  023%=      5-min Rain = 0
KES1 172232Z 29001KT 14/M07 A3007 RMK A01 T01401069  RH  023%=      5-min Rain = 0
KES1 172233Z 20003KT 14/M07 A3007 RMK A01 T01401067  RH  023%=      5-min Rain = 0
KES1 172234Z 21005KT 14/M07 A3007 RMK A01 T01411069  RH  023%=      5-min Rain = 0
KES1 172235Z 21005KT 14/M07 A3007 RMK A01 T01411069  RH  023%=      5-min Rain = 0
KES1 172236Z 21006KT 14/M07 A3007 RMK A01 T01411067  RH  023%=      5-min Rain = 0
KES1 172237Z 23005KT 14/M07 A3007 RMK A01 T01411066  RH  023%=      5-min Rain = 0
KES1 172238Z 25007KT 14/M07 A3007 RMK A01 T01421066  RH  023%=      5-min Rain = 0
KES1 172239Z 26005KT 14/M06 A3007 RMK A01 T01421064  RH  023%=      5-min Rain = 0
KES1 172240Z 27005KT 14/M07 A3007 RMK A01 T01421065  RH  023%=      5-min Rain = 0
KES1 172241Z 28005KT 14/M07 A3007 RMK A01 T01421067  RH  023%=      5-min Rain = 0
KES1 172242Z 28004KT 14/M07 A3007 RMK A01 T01401067  RH  023%=      5-min Rain = 0
KES1 172243Z 26006KT 14/M07 A3007 RMK A01 T01401065  RH  024%=      5-min Rain = 0
KES1 172244Z 26005KT 14/M07 A3007 RMK A01 T01401066  RH  023%=      5-min Rain = 0
KES1 172245Z 25005KT 14/M07 A3007 RMK A01 T01391067  RH  023%=      5-min Rain = 0
KES1 172246Z 26006KT 14/M07 A3007 RMK A01 T01391065  RH  024%=      5-min Rain = 0
KES1 172247Z 26005KT 14/M07 A3007 RMK A01 T01401065  RH  024%=      5-min Rain = 0
KES1 172248Z 27005KT 14/M07 A3007 RMK A01 T01391065  RH  024%=      5-min Rain = 0
KES1 172249Z 29006KT 14/M07 A3007 RMK A01 T01391065  RH  024%=      5-min Rain = 0
KES1 172250Z 30005KT 14/M06 A3007 RMK A01 T01381064  RH  024%=      5-min Rain = 0
KES1 172251Z 30005KT 14/M06 A3007 RMK A01 T01381064  RH  024%=      5-min Rain = 0
KES1 172252Z 29005KT 14/M06 A3007 RMK A01 T01371064  RH  024%=      5-min Rain = 0
KES1 172253Z 29004KT 14/M07 A3007 RMK A01 T01361065  RH  024%=      5-min Rain = 0
KES1 172254Z 30004KT 14/M07 A3007 RMK A01 T01361065  RH  024%=      5-min Rain = 0
KES1 172255Z 30004KT 14/M06 A3007 RMK A01 T01351064  RH  025%=      5-min Rain = 0
KES1 172256Z 29004KT 14/M06 A3007 RMK A01 T01351064  RH  024%=      5-min Rain = 0
KES1 172257Z 27006KT 13/M07 A3007 RMK A01 T01341065  RH  024%=      5-min Rain = 0
KES1 172258Z 27006KT 13/M07 A3007 RMK A01 T01341065  RH  025%=      5-min Rain = 0
KES1 172259Z 27006KT 13/M07 A3007 RMK A01 T01341066  RH  024%=      5-min Rain = 0
KES1 172300Z 28006KT 13/M07 A3007 RMK A01 T01331067  RH  024%=      5-min Rain = 0
KES1 172301Z 29004KT 13/M07 A3007 RMK A01 T01331068  RH  024%=      5-min Rain = 0
KES1 172302Z 27005KT 13/M07 A3007 RMK A01 T01321068  RH  024%=      5-min Rain = 0
KES1 172303Z 27006KT 13/M07 A3007 RMK A01 T01321066  RH  025%=      5-min Rain = 0
KES1 172304Z 26005KT 13/M07 A3007 RMK A01 T01321067  RH  024%=      5-min Rain = 0
KES1 172305Z 25004KT 13/M07 A3007 RMK A01 T01321068  RH  024%=      5-min Rain = 0
KES1 172306Z 25003KT 13/M07 A3007 RMK A01 T01321068  RH  024%=      5-min Rain = 0
KES1 172307Z 25004KT 13/M07 A3007 RMK A01 T01321068  RH  024%=      5-min Rain = 0
KES1 172308Z 25004KT 13/M07 A3007 RMK A01 T01331068  RH  024%=      5-min Rain = 0
KES1 172309Z 24003KT 13/M07 A3007 RMK A01 T01331068  RH  024%=      5-min Rain = 0
KES1 172310Z 25003KT 13/M07 A3007 RMK A01 T01331067  RH  024%=      5-min Rain = 0
KES1 172311Z 23003KT 13/M07 A3007 RMK A01 T01331067  RH  024%=      5-min Rain = 0
KES1 172312Z 23003KT 13/M07 A3007 RMK A01 T01341066  RH  024%=      5-min Rain = 0
KES1 172313Z 24003KT 13/M07 A3007 RMK A01 T01341065  RH  024%=      5-min Rain = 0
KES1 172314Z 25006KT 14/M07 A3006 RMK A01 T01351066  RH  024%=      5-min Rain = 0
KES1 172315Z 24005KT 13/M07 A3006 RMK A01 T01341066  RH  024%=      5-min Rain = 0
KES1 172316Z 24005KT 13/M07 A3006 RMK A01 T01331066  RH  024%=      5-min Rain = 0
KES1 172317Z 26004KT 13/M07 A3007 RMK A01 T01331065  RH  025%=      5-min Rain = 0
KES1 172318Z 26004KT 13/M07 A3006 RMK A01 T01321065  RH  025%=      5-min Rain = 0
KES1 172319Z 25004KT 13/M06 A3006 RMK A01 T01311064  RH  025%=      5-min Rain = 0
KES1 172320Z 25004KT 13/M07 A3006 RMK A01 T01301065  RH  025%=      5-min Rain = 0
KES1 172321Z 25004KT 13/M06 A3006 RMK A01 T01301064  RH  025%=      5-min Rain = 0
KES1 172322Z 26003KT 13/M06 A3006 RMK A01 T01301064  RH  025%=      5-min Rain = 0
KES1 172323Z 26003KT 13/M06 A3006 RMK A01 T01291064  RH  026%=      5-min Rain = 0
KES1 172324Z 26003KT 13/M06 A3006 RMK A01 T01291063  RH  026%=      5-min Rain = 0
KES1 172325Z 27003KT 13/M06 A3006 RMK A01 T01291063  RH  026%=      5-min Rain = 0
KES1 172326Z 26003KT 13/M06 A3006 RMK A01 T01281064  RH  026%=      5-min Rain = 0
KES1 172327Z 26003KT 13/M06 A3006 RMK A01 T01281063  RH  026%=      5-min Rain = 0
KES1 172328Z 25003KT 13/M06 A3006 RMK A01 T01271064  RH  026%=      5-min Rain = 0
KES1 172329Z 25003KT 13/M06 A3006 RMK A01 T01271064  RH  026%=      5-min Rain = 0
KES1 172330Z 24003KT 13/M07 A3006 RMK A01 T01271065  RH  026%=      5-min Rain = 0
KES1 172331Z 24003KT 13/M06 A3006 RMK A01 T01261064  RH  026%=      5-min Rain = 0
KES1 172332Z 24004KT 13/M07 A3006 RMK A01 T01261065  RH  026%=      5-min Rain = 0
KES1 172333Z 23003KT 13/M07 A3006 RMK A01 T01251065  RH  026%=      5-min Rain = 0
KES1 172334Z 23004KT 12/M07 A3006 RMK A01 T01241065  RH  026%=      5-min Rain = 0
KES1 172335Z 23004KT 12/M07 A3006 RMK A01 T01241065  RH  026%=      5-min Rain = 0
KES1 172336Z 23004KT 12/M07 A3006 RMK A01 T01231065  RH  026%=      5-min Rain = 0
KES1 172337Z 23004KT 12/M06 A3006 RMK A01 T01221064  RH  027%=      5-min Rain = 0
KES1 172338Z 23004KT 12/M07 A3006 RMK A01 T01211065  RH  027%=      5-min Rain = 0
KES1 172339Z 22004KT 12/M07 A3006 RMK A01 T01201065  RH  027%=      5-min Rain = 0
KES1 172340Z 23004KT 12/M07 A3006 RMK A01 T01201065  RH  027%=      5-min Rain = 0
KES1 172341Z 23004KT 12/M07 A3006 RMK A01 T01191065  RH  027%=      5-min Rain = 0
KES1 172342Z 23004KT 12/M07 A3006 RMK A01 T01191065  RH  027%=      5-min Rain = 0
KES1 172343Z 23004KT 12/M07 A3006 RMK A01 T01191066  RH  027%=      5-min Rain = 0
KES1 172344Z 23005KT 12/M07 A3006 RMK A01 T01181066  RH  027%=      5-min Rain = 0
KES1 172345Z 22005KT 12/M07 A3006 RMK A01 T01171066  RH  027%=      5-min Rain = 0
KES1 172346Z 22005KT 12/M07 A3006 RMK A01 T01161066  RH  027%=      5-min Rain = 0
KES1 172347Z 22005KT 12/M07 A3006 RMK A01 T01161066  RH  027%=      5-min Rain = 0
KES1 172348Z 22005KT 12/M07 A3006 RMK A01 T01151067  RH  027%=      5-min Rain = 0
KES1 172349Z 22005KT 12/M07 A3006 RMK A01 T01151067  RH  027%=      5-min Rain = 0
KES1 172350Z 22005KT 11/M07 A3006 RMK A01 T01141067  RH  028%=      5-min Rain = 0
KES1 172351Z 22005KT 11/M07 A3006 RMK A01 T01141067  RH  028%=      5-min Rain = 0
KES1 172352Z 22005KT 11/M07 A3006 RMK A01 T01131068  RH  028%=      5-min Rain = 0
KES1 172353Z 21004KT 11/M07 A3006 RMK A01 T01121067  RH  028%=      5-min Rain = 0
KES1 172354Z 21004KT 11/M07 A3006 RMK A01 T01121067  RH  028%=      5-min Rain = 0
KES1 172355Z 21004KT 11/M07 A3006 RMK A01 T01121067  RH  028%=      5-min Rain = 0
KES1 172356Z 22005KT 11/M07 A3006 RMK A01 T01101068  RH  028%=      5-min Rain = 0
KES1 172357Z 22005KT 11/M07 A3006 RMK A01 T01101067  RH  028%=      5-min Rain = 0
KES1 172358Z 22005KT 11/M07 A3006 RMK A01 T01091068  RH  028%=      5-min Rain = 0
KES1 172359Z 22005KT 11/M07 A3006 RMK A01 T01081068  RH  028%=      5-min Rain = 0
KES1 180000Z 22005KT 11/M07 A3006 RMK A01 T01071068  RH  029%=      5-min Rain = 0
KES1 180001Z 22005KT 11/M07 A3006 RMK A01 T01061068  RH  029%=      5-min Rain = 0
KES1 180002Z 22005KT 11/M07 A3006 RMK A01 T01061068  RH  029%=      5-min Rain = 0
KES1 180003Z 21006KT 11/M07 A3006 RMK A01 T01061068  RH  029%=      5-min Rain = 0
KES1 180004Z 21007KT 11/M07 A3006 RMK A01 T01061068  RH  029%=      5-min Rain = 0
KES1 180005Z 22006KT 11/M07 A3006 RMK A01 T01051068  RH  029%=      5-min Rain = 0
KES1 180006Z 22006KT 11/M07 A3006 RMK A01 T01051069  RH  029%=      5-min Rain = 0
KES1 180007Z 21006KT 11/M07 A3006 RMK A01 T01051069  RH  029%=      5-min Rain = 0
KES1 180008Z 20006KT 11/M07 A3006 RMK A01 T01051069  RH  029%=      5-min Rain = 0
KES1 180009Z 19006KT 10/M07 A3006 RMK A01 T01041069  RH  029%=      5-min Rain = 0
KES1 180010Z 19006KT 10/M07 A3006 RMK A01 T01031069  RH  029%=      5-min Rain = 0
KES1 180011Z 19006KT 10/M07 A3006 RMK A01 T01021068  RH  030%=      5-min Rain = 0
KES1 180012Z 19006KT 10/M07 A3006 RMK A01 T01011068  RH  030%=      5-min Rain = 0
KES1 180013Z 19006KT 10/M07 A3006 RMK A01 T01011068  RH  030%=      5-min Rain = 0
KES1 180014Z 18006KT 10/M07 A3006 RMK A01 T01001067  RH  030%=      5-min Rain = 0
KES1 180015Z 19007KT 10/M07 A3006 RMK A01 T01001067  RH  030%=      5-min Rain = 0
KES1 180016Z 19007KT 10/M07 A3006 RMK A01 T01001066  RH  030%=      5-min Rain = 0
KES1 180017Z 18007KT 10/M07 A3006 RMK A01 T01001065  RH  031%=      5-min Rain = 0
KES1 180018Z 19007KT 10/M07 A3006 RMK A01 T01001065  RH  031%=      5-min Rain = 0
KES1 180019Z 19007KT 10/M07 A3007 RMK A01 T01001065  RH  031%=      5-min Rain = 0
KES1 180020Z 19007KT 10/M07 A3007 RMK A01 T01001065  RH  031%=      5-min Rain = 0
KES1 180021Z 19007KT 10/M06 A3007 RMK A01 T01001064  RH  031%=      5-min Rain = 0
KES1 180022Z 18007KT 10/M06 A3007 RMK A01 T01001064  RH  031%=      5-min Rain = 0
KES1 180023Z 19008KT 10/M06 A3007 RMK A01 T00991064  RH  031%=      5-min Rain = 0
KES1 180024Z 19008KT 10/M06 A3007 RMK A01 T00991064  RH  031%=      5-min Rain = 0
KES1 180025Z 19008KT 10/M06 A3007 RMK A01 T00991064  RH  031%=      5-min Rain = 0
KES1 180026Z 19007KT 10/M06 A3007 RMK A01 T00991064  RH  031%=      5-min Rain = 0
KES1 180027Z 18008KT 10/M06 A3007 RMK A01 T00991064  RH  031%=      5-min Rain = 0
KES1 180028Z 19008KT 10/M06 A3006 RMK A01 T00991064  RH  031%=      5-min Rain = 0
KES1 180029Z 18008KT 10/M06 A3006 RMK A01 T00981064  RH  031%=      5-min Rain = 0
KES1 180030Z 19008KT 10/M06 A3006 RMK A01 T00981063  RH  031%=      5-min Rain = 0
KES1 180031Z 19008KT 10/M06 A3006 RMK A01 T00981063  RH  031%=      5-min Rain = 0
KES1 180032Z 18008KT 10/M06 A3006 RMK A01 T00981063  RH  032%=      5-min Rain = 0
KES1 180033Z 18008KT 10/M06 A3006 RMK A01 T00981063  RH  032%=      5-min Rain = 0
KES1 180034Z 18008KT 10/M06 A3006 RMK A01 T00971063  RH  032%=      5-min Rain = 0
KES1 180035Z 18008KT 10/M06 A3006 RMK A01 T00971063  RH  032%=      5-min Rain = 0
KES1 180036Z 18008KT 10/M06 A3006 RMK A01 T00971063  RH  032%=      5-min Rain = 0
KES1 180037Z 18008KT 10/M06 A3006 RMK A01 T00971063  RH  032%=      5-min Rain = 0
KES1 180038Z 18008KT 10/M06 A3006 RMK A01 T00961063  RH  032%=      5-min Rain = 0
KES1 180039Z 18008KT 10/M06 A3006 RMK A01 T00961062  RH  032%=      5-min Rain = 0
KES1 180040Z 18008KT 10/M06 A3006 RMK A01 T00951062  RH  032%=      5-min Rain = 0
KES1 180041Z 18008KT 09/M06 A3006 RMK A01 T00941063  RH  033%=      5-min Rain = 0
KES1 180042Z 19008KT 09/M06 A3006 RMK A01 T00941063  RH  033%=      5-min Rain = 0
KES1 180043Z 18008KT 10/M06 A3006 RMK A01 T00951062  RH  033%=      5-min Rain = 0
KES1 180044Z 18008KT 09/M06 A3006 RMK A01 T00941062  RH  033%=      5-min Rain = 0
KES1 180045Z 18008KT 10/M06 A3006 RMK A01 T00951062  RH  033%=      5-min Rain = 0
KES1 180046Z 19008KT 10/M06 A3006 RMK A01 T00951062  RH  032%=      5-min Rain = 0
KES1 180047Z 18008KT 10/M06 A3006 RMK A01 T00951062  RH  033%=      5-min Rain = 0
KES1 180048Z 18008KT 10/M06 A3006 RMK A01 T00951062  RH  033%=      5-min Rain = 0
KES1 180049Z 18008KT 09/M06 A3006 RMK A01 T00941062  RH  032%=      5-min Rain = 0
KES1 180050Z 18008KT 09/M06 A3006 RMK A01 T00941062  RH  033%=      5-min Rain = 0
KES1 180051Z 18008KT 09/M06 A3006 RMK A01 T00941062  RH  033%=      5-min Rain = 0
KES1 180052Z 18008KT 09/M06 A3006 RMK A01 T00931062  RH  033%=      5-min Rain = 0
KES1 180053Z 18008KT 09/M06 A3006 RMK A01 T00921062  RH  033%=      5-min Rain = 0
KES1 180054Z 18008KT 09/M06 A3006 RMK A01 T00921062  RH  033%=      5-min Rain = 0
KES1 180055Z 18008KT 09/M06 A3006 RMK A01 T00911062  RH  033%=      5-min Rain = 0
KES1 180056Z 18008KT 09/M06 A3006 RMK A01 T00911062  RH  033%=      5-min Rain = 0
KES1 180057Z 18009KT 09/M06 A3006 RMK A01 T00901062  RH  033%=      5-min Rain = 0
KES1 180058Z 19008KT 09/M06 A3006 RMK A01 T00901062  RH  033%=      5-min Rain = 0
KES1 180059Z 19009KT 09/M06 A3007 RMK A01 T00901062  RH  034%=      5-min Rain = 0
KES1 180100Z 19008KT 09/M06 A3007 RMK A01 T00901062  RH  034%=      5-min Rain = 0
KES1 180101Z 19008KT 09/M06 A3007 RMK A01 T00891062  RH  034%=      5-min Rain = 0
KES1 180102Z 19009KT 09/M06 A3007 RMK A01 T00881062  RH  034%=      5-min Rain = 0
KES1 180103Z 19008KT 09/M06 A3007 RMK A01 T00871062  RH  034%=      5-min Rain = 0
KES1 180104Z 19009KT 09/M06 A3007 RMK A01 T00871062  RH  034%=      5-min Rain = 0
KES1 180105Z 19008KT 09/M06 A3007 RMK A01 T00881062  RH  034%=      5-min Rain = 0
KES1 180106Z 19008KT 09/M06 A3007 RMK A01 T00871062  RH  034%=      5-min Rain = 0
KES1 180107Z 19007KT 09/M06 A3007 RMK A01 T00861062  RH  034%=      5-min Rain = 0
KES1 180108Z 19007KT 09/M06 A3007 RMK A01 T00851062  RH  035%=      5-min Rain = 0
KES1 180109Z 19008KT 08/M06 A3007 RMK A01 T00841063  RH  035%=      5-min Rain = 0
KES1 180110Z 19008KT 08/M06 A3007 RMK A01 T00831063  RH  035%=      5-min Rain = 0
KES1 180111Z 19008KT 08/M06 A3006 RMK A01 T00831062  RH  035%=      5-min Rain = 0
KES1 180112Z 19008KT 08/M06 A3006 RMK A01 T00831062  RH  035%=      5-min Rain = 0
KES1 180113Z 19008KT 08/M06 A3006 RMK A01 T00831063  RH  035%=      5-min Rain = 0
KES1 180114Z 19008KT 08/M06 A3007 RMK A01 T00841063  RH  035%=      5-min Rain = 0
KES1 180115Z 18008KT 08/M06 A3007 RMK A01 T00841062  RH  035%=      5-min Rain = 0
KES1 180116Z 19008KT 09/M06 A3006 RMK A01 T00851062  RH  035%=      5-min Rain = 0
KES1 180117Z 19008KT 08/M06 A3006 RMK A01 T00841062  RH  035%=      5-min Rain = 0
KES1 180118Z 19008KT 09/M06 A3006 RMK A01 T00851062  RH  035%=      5-min Rain = 0
KES1 180119Z 18008KT 08/M06 A3006 RMK A01 T00841062  RH  035%=      5-min Rain = 0
KES1 180120Z 19008KT 08/M06 A3006 RMK A01 T00841062  RH  035%=      5-min Rain = 0
KES1 180121Z 18008KT 09/M06 A3006 RMK A01 T00851062  RH  035%=      5-min Rain = 0
KES1 180122Z 18008KT 08/M06 A3006 RMK A01 T00841062  RH  035%=      5-min Rain = 0
KES1 180123Z 18008KT 08/M06 A3007 RMK A01 T00841062  RH  035%=      5-min Rain = 0
KES1 180124Z 18008KT 08/M06 A3007 RMK A01 T00841062  RH  035%=      5-min Rain = 0
KES1 180125Z 18008KT 08/M06 A3006 RMK A01 T00841062  RH  035%=      5-min Rain = 0
KES1 180126Z 18008KT 08/M06 A3006 RMK A01 T00841062  RH  035%=      5-min Rain = 0
KES1 180127Z 19008KT 08/M06 A3006 RMK A01 T00841062  RH  035%=      5-min Rain = 0
KES1 180128Z 18008KT 08/M06 A3006 RMK A01 T00831062  RH  035%=      5-min Rain = 0
KES1 180129Z 18008KT 08/M06 A3006 RMK A01 T00831062  RH  035%=      5-min Rain = 0
KES1 180130Z 18008KT 08/M06 A3006 RMK A01 T00831062  RH  035%=      5-min Rain = 0
KES1 180131Z 18008KT 08/M06 A3006 RMK A01 T00821062  RH  036%=      5-min Rain = 0
KES1 180132Z 18009KT 08/M06 A3006 RMK A01 T00811062  RH  036%=      5-min Rain = 0
KES1 180133Z 18009KT 08/M06 A3006 RMK A01 T00811061  RH  036%=      5-min Rain = 0
KES1 180134Z 18008KT 08/M06 A3006 RMK A01 T00801062  RH  036%=      5-min Rain = 0
KES1 180135Z 18008KT 08/M06 A3006 RMK A01 T00811062  RH  036%=      5-min Rain = 0
KES1 180136Z 18008KT 08/M06 A3006 RMK A01 T00801062  RH  036%=      5-min Rain = 0
KES1 180137Z 19009KT 08/M06 A3006 RMK A01 T00801061  RH  036%=      5-min Rain = 0
KES1 180138Z 19008KT 08/M06 A3006 RMK A01 T00791061  RH  036%=      5-min Rain = 0
KES1 180139Z 18008KT 08/M06 A3006 RMK A01 T00791062  RH  036%=      5-min Rain = 0
KES1 180140Z 18008KT 08/M06 A3006 RMK A01 T00781061  RH  037%=      5-min Rain = 0
KES1 180141Z 19008KT 08/M06 A3006 RMK A01 T00771061  RH  037%=      5-min Rain = 0
KES1 180142Z 19008KT 08/M06 A3006 RMK A01 T00761061  RH  037%=      5-min Rain = 0
KES1 180143Z 19008KT 08/M06 A3006 RMK A01 T00751061  RH  037%=      5-min Rain = 0
KES1 180144Z 19008KT 07/M06 A3006 RMK A01 T00741062  RH  037%=      5-min Rain = 0
KES1 180145Z 19008KT 07/M06 A3006 RMK A01 T00741061  RH  038%=      5-min Rain = 0
KES1 180146Z 19008KT 07/M06 A3006 RMK A01 T00741061  RH  038%=      5-min Rain = 0
KES1 180147Z 19007KT 07/M06 A3006 RMK A01 T00731061  RH  038%=      5-min Rain = 0
KES1 180148Z 19008KT 07/M06 A3006 RMK A01 T00731061  RH  038%=      5-min Rain = 0
KES1 180149Z 18008KT 07/M06 A3006 RMK A01 T00731061  RH  038%=      5-min Rain = 0
KES1 180150Z 19008KT 07/M06 A3006 RMK A01 T00721060  RH  038%=      5-min Rain = 0
KES1 180151Z 19008KT 07/M06 A3006 RMK A01 T00711061  RH  038%=      5-min Rain = 0
KES1 180152Z 19008KT 07/M06 A3006 RMK A01 T00721061  RH  038%=      5-min Rain = 0
KES1 180153Z 19008KT 07/M06 A3006 RMK A01 T00721060  RH  038%=      5-min Rain = 0
KES1 180154Z 19007KT 07/M06 A3006 RMK A01 T00711060  RH  039%=      5-min Rain = 0
KES1 180155Z 19008KT 07/M06 A3005 RMK A01 T00711060  RH  039%=      5-min Rain = 0
KES1 180156Z 19008KT 07/M06 A3005 RMK A01 T00711060  RH  039%=      5-min Rain = 0
KES1 180157Z 19009KT 07/M06 A3005 RMK A01 T00711060  RH  039%=      5-min Rain = 0
KES1 180158Z 18009KT 07/M06 A3005 RMK A01 T00711060  RH  039%=      5-min Rain = 0
KES1 180159Z 19009KT 07/M06 A3005 RMK A01 T00711060  RH  039%=      5-min Rain = 0
KES1 180200Z 19008KT 07/M06 A3005 RMK A01 T00721060  RH  039%=      5-min Rain = 0
KES1 180201Z 19008KT 07/M06 A3005 RMK A01 T00721060  RH  039%=      5-min Rain = 0
KES1 180202Z 19008KT 07/M06 A3005 RMK A01 T00711060  RH  039%=      5-min Rain = 0
KES1 180203Z 19007KT 07/M06 A3005 RMK A01 T00711060  RH  039%=      5-min Rain = 0
KES1 180204Z 19008KT 07/M06 A3005 RMK A01 T00711060  RH  039%=      5-min Rain = 0
KES1 180205Z 19008KT 07/M06 A3005 RMK A01 T00711060  RH  039%=      5-min Rain = 0
KES1 180206Z 19008KT 07/M06 A3005 RMK A01 T00711060  RH  039%=      5-min Rain = 0
KES1 180207Z 19008KT 07/M06 A3005 RMK A01 T00711060  RH  039%=      5-min Rain = 0
KES1 180208Z 19009KT 07/M06 A3005 RMK A01 T00701060  RH  039%=      5-min Rain = 0
KES1 180209Z 19009KT 07/M06 A3005 RMK A01 T00701060  RH  039%=      5-min Rain = 0
KES1 180210Z 19007KT 07/M06 A3005 RMK A01 T00701060  RH  039%=      5-min Rain = 0
KES1 180211Z 19007KT 07/M06 A3005 RMK A01 T00701060  RH  039%=      5-min Rain = 0
KES1 180212Z 19008KT 07/M06 A3005 RMK A01 T00691060  RH  039%=      5-min Rain = 0
KES1 180213Z 19008KT 07/M06 A3005 RMK A01 T00681060  RH  039%=      5-min Rain = 0
KES1 180214Z 19008KT 07/M06 A3005 RMK A01 T00681060  RH  040%=      5-min Rain = 0
KES1 180215Z 19008KT 07/M06 A3005 RMK A01 T00681060  RH  040%=      5-min Rain = 0
KES1 180216Z 19008KT 07/M06 A3005 RMK A01 T00681060  RH  040%=      5-min Rain = 0
KES1 180217Z 19008KT 07/M06 A3005 RMK A01 T00681060  RH  040%=      5-min Rain = 0
KES1 180218Z 19008KT 07/M06 A3005 RMK A01 T00681060  RH  040%=      5-min Rain = 0
KES1 180219Z 19007KT 07/M06 A3005 RMK A01 T00681060  RH  040%=      5-min Rain = 0
KES1 180220Z 19007KT 07/M06 A3005 RMK A01 T00681060  RH  040%=      5-min Rain = 0
KES1 180221Z 19007KT 07/M06 A3005 RMK A01 T00681059  RH  040%=      5-min Rain = 0
KES1 180222Z 19007KT 07/M06 A3005 RMK A01 T00671060  RH  040%=      5-min Rain = 0
KES1 180223Z 19008KT 07/M06 A3005 RMK A01 T00671060  RH  040%=      5-min Rain = 0
KES1 180224Z 19007KT 07/M06 A3005 RMK A01 T00671059  RH  040%=      5-min Rain = 0
KES1 180225Z 19007KT 07/M06 A3005 RMK A01 T00671060  RH  040%=      5-min Rain = 0
KES1 180226Z 19007KT 07/M06 A3005 RMK A01 T00671059  RH  040%=      5-min Rain = 0
KES1 180227Z 19006KT 07/M06 A3005 RMK A01 T00671059  RH  040%=      5-min Rain = 0
KES1 180228Z 19006KT 07/M06 A3005 RMK A01 T00661060  RH  040%=      5-min Rain = 0
KES1 180229Z 20006KT 07/M06 A3005 RMK A01 T00651060  RH  041%=      5-min Rain = 0
KES1 180230Z 19006KT 06/M06 A3005 RMK A01 T00641060  RH  041%=      5-min Rain = 0
KES1 180231Z 20006KT 06/M06 A3005 RMK A01 T00631060  RH  041%=      5-min Rain = 0
KES1 180232Z 19006KT 06/M06 A3005 RMK A01 T00621060  RH  041%=      5-min Rain = 0
KES1 180233Z 20007KT 06/M06 A3005 RMK A01 T00611060  RH  042%=      5-min Rain = 0
KES1 180234Z 20007KT 06/M06 A3005 RMK A01 T00601060  RH  042%=      5-min Rain = 0
KES1 180235Z 19006KT 06/M06 A3005 RMK A01 T00591060  RH  042%=      5-min Rain = 0
KES1 180236Z 20006KT 06/M06 A3005 RMK A01 T00591060  RH  042%=      5-min Rain = 0
KES1 180237Z 19007KT 06/M06 A3005 RMK A01 T00581060  RH  042%=      5-min Rain = 0
KES1 180238Z 19007KT 06/M06 A3005 RMK A01 T00581060  RH  042%=      5-min Rain = 0
KES1 180239Z 20008KT 06/M06 A3005 RMK A01 T00581060  RH  042%=      5-min Rain = 0
KES1 180240Z 19007KT 06/M06 A3004 RMK A01 T00581060  RH  042%=      5-min Rain = 0
KES1 180241Z 20007KT 06/M06 A3004 RMK A01 T00581060  RH  042%=      5-min Rain = 0
KES1 180242Z 19007KT 06/M06 A3004 RMK A01 T00581060  RH  042%=      5-min Rain = 0
KES1 180243Z 19007KT 06/M06 A3004 RMK A01 T00581060  RH  042%=      5-min Rain = 0
KES1 180244Z 19007KT 06/M06 A3004 RMK A01 T00581060  RH  042%=      5-min Rain = 0
KES1 180245Z 19007KT 06/M06 A3004 RMK A01 T00581060  RH  043%=      5-min Rain = 0
KES1 180246Z 19008KT 06/M06 A3004 RMK A01 T00571060  RH  043%=      5-min Rain = 0
KES1 180247Z 19007KT 06/M06 A3004 RMK A01 T00571060  RH  043%=      5-min Rain = 0
KES1 180248Z 19007KT 06/M06 A3004 RMK A01 T00571060  RH  043%=      5-min Rain = 0
KES1 180249Z 19007KT 06/M06 A3004 RMK A01 T00571060  RH  043%=      5-min Rain = 0
KES1 180250Z 19007KT 06/M06 A3004 RMK A01 T00571060  RH  043%=      5-min Rain = 0
KES1 180251Z 19007KT 06/M06 A3004 RMK A01 T00561061  RH  043%=      5-min Rain = 0
KES1 180252Z 19007KT 06/M06 A3004 RMK A01 T00561061  RH  043%=      5-min Rain = 0
KES1 180253Z 19007KT 06/M06 A3004 RMK A01 T00571061  RH  043%=      5-min Rain = 0
KES1 180254Z 19008KT 06/M06 A3004 RMK A01 T00561060  RH  043%=      5-min Rain = 0
KES1 180255Z 19008KT 06/M06 A3004 RMK A01 T00561061  RH  043%=      5-min Rain = 0
KES1 180256Z 20008KT 06/M06 A3004 RMK A01 T00561060  RH  043%=      5-min Rain = 0
KES1 180257Z 20007KT 06/M06 A3004 RMK A01 T00551060  RH  043%=      5-min Rain = 0
KES1 180258Z 20008KT 05/M06 A3004 RMK A01 T00541061  RH  043%=      5-min Rain = 0
KES1 180259Z 19008KT 05/M06 A3004 RMK A01 T00541061  RH  043%=      5-min Rain = 0
KES1 180300Z 19007KT 05/M06 A3004 RMK A01 T00531061  RH  044%=      5-min Rain = 0
KES1 180301Z 20007KT 05/M06 A3004 RMK A01 T00531061  RH  044%=      5-min Rain = 0
KES1 180302Z 20007KT 05/M06 A3004 RMK A01 T00521060  RH  044%=      5-min Rain = 0
KES1 180303Z 19007KT 05/M06 A3004 RMK A01 T00511061  RH  044%=      5-min Rain = 0
KES1 180304Z 19007KT 05/M06 A3004 RMK A01 T00511061  RH  044%=      5-min Rain = 0
KES1 180305Z 19007KT 05/M06 A3004 RMK A01 T00501061  RH  044%=      5-min Rain = 0
KES1 180306Z 19007KT 05/M06 A3004 RMK A01 T00501060  RH  045%=      5-min Rain = 0
KES1 180307Z 19007KT 05/M06 A3004 RMK A01 T00491061  RH  045%=      5-min Rain = 0
KES1 180308Z 19008KT 05/M06 A3003 RMK A01 T00491060  RH  045%=      5-min Rain = 0
KES1 180309Z 19008KT 05/M06 A3003 RMK A01 T00511060  RH  045%=      5-min Rain = 0
KES1 180310Z 18008KT 05/M06 A3003 RMK A01 T00521060  RH  044%=      5-min Rain = 0
KES1 180311Z 18008KT 05/M06 A3004 RMK A01 T00531060  RH  044%=      5-min Rain = 0
KES1 180312Z 19008KT 05/M06 A3004 RMK A01 T00541060  RH  043%=      5-min Rain = 0
KES1 180313Z 19008KT 06/M06 A3004 RMK A01 T00551060  RH  043%=      5-min Rain = 0
KES1 180314Z 19008KT 06/M06 A3004 RMK A01 T00561060  RH  043%=      5-min Rain = 0
KES1 180315Z 20007KT 06/M06 A3004 RMK A01 T00561060  RH  043%=      5-min Rain = 0
KES1 180316Z 19007KT 06/M06 A3004 RMK A01 T00561060  RH  043%=      5-min Rain = 0
KES1 180317Z 19008KT 06/M06 A3004 RMK A01 T00551061  RH  043%=      5-min Rain = 0
KES1 180318Z 19007KT 06/M06 A3003 RMK A01 T00551061  RH  043%=      5-min Rain = 0
KES1 180319Z 19006KT 06/M06 A3003 RMK A01 T00551061  RH  043%=      5-min Rain = 0
KES1 180320Z 19007KT 05/M06 A3003 RMK A01 T00541060  RH  043%=      5-min Rain = 0
KES1 180321Z 19007KT 05/M06 A3003 RMK A01 T00541060  RH  044%=      5-min Rain = 0
KES1 180322Z 19007KT 05/M06 A3003 RMK A01 T00541060  RH  044%=      5-min Rain = 0
KES1 180323Z 19007KT 05/M06 A3003 RMK A01 T00531060  RH  044%=      5-min Rain = 0
KES1 180324Z 20007KT 05/M06 A3003 RMK A01 T00531061  RH  044%=      5-min Rain = 0
KES1 180325Z 20005KT 05/M06 A3003 RMK A01 T00531060  RH  044%=      5-min Rain = 0
KES1 180326Z 19007KT 05/M06 A3003 RMK A01 T00521060  RH  044%=      5-min Rain = 0
KES1 180327Z 20006KT 05/M06 A3003 RMK A01 T00521060  RH  044%=      5-min Rain = 0
KES1 180328Z 21006KT 05/M06 A3003 RMK A01 T00511060  RH  044%=      5-min Rain = 0
KES1 180329Z 21005KT 05/M06 A3004 RMK A01 T00511060  RH  045%=      5-min Rain = 0
KES1 180330Z 21006KT 05/M06 A3004 RMK A01 T00491060  RH  045%=      5-min Rain = 0
KES1 180331Z 22006KT 05/M06 A3004 RMK A01 T00471060  RH  045%=      5-min Rain = 0
KES1 180332Z 21006KT 05/M06 A3004 RMK A01 T00471060  RH  046%=      5-min Rain = 0
KES1 180333Z 21006KT 05/M06 A3004 RMK A01 T00451060  RH  046%=      5-min Rain = 0
KES1 180334Z 21007KT 04/M06 A3004 RMK A01 T00431060  RH  047%=      5-min Rain = 0
KES1 180335Z 21007KT 04/M06 A3004 RMK A01 T00421060  RH  047%=      5-min Rain = 0
KES1 180336Z 20007KT 04/M06 A3004 RMK A01 T00411060  RH  047%=      5-min Rain = 0
KES1 180337Z 20007KT 04/M06 A3004 RMK A01 T00411060  RH  048%=      5-min Rain = 0
KES1 180338Z 20007KT 04/M06 A3004 RMK A01 T00421060  RH  048%=      5-min Rain = 0
KES1 180339Z 20006KT 04/M06 A3004 RMK A01 T00411060  RH  048%=      5-min Rain = 0
KES1 180340Z 20007KT 04/M06 A3003 RMK A01 T00411060  RH  048%=      5-min Rain = 0
KES1 180341Z 20007KT 04/M06 A3003 RMK A01 T00411060  RH  048%=      5-min Rain = 0
KES1 180342Z 19007KT 04/M06 A3003 RMK A01 T00401060  RH  048%=      5-min Rain = 0
KES1 180343Z 20007KT 04/M06 A3003 RMK A01 T00401060  RH  048%=      5-min Rain = 0
KES1 180344Z 20007KT 04/M06 A3003 RMK A01 T00401060  RH  048%=      5-min Rain = 0
KES1 180345Z 20007KT 04/M06 A3003 RMK A01 T00411060  RH  048%=      5-min Rain = 0
KES1 180346Z 20007KT 04/M06 A3003 RMK A01 T00401060  RH  048%=      5-min Rain = 0
KES1 180347Z 21007KT 04/M06 A3003 RMK A01 T00401060  RH  048%=      5-min Rain = 0
KES1 180348Z 21007KT 04/M06 A3003 RMK A01 T00391060  RH  048%=      5-min Rain = 0
KES1 180349Z 21007KT 04/M06 A3003 RMK A01 T00381060  RH  049%=      5-min Rain = 0
KES1 180350Z 21006KT 04/M06 A3003 RMK A01 T00381060  RH  049%=      5-min Rain = 0
KES1 180351Z 21007KT 04/M06 A3003 RMK A01 T00371060  RH  049%=      5-min Rain = 0
KES1 180352Z 21006KT 04/M06 A3003 RMK A01 T00371060  RH  049%=      5-min Rain = 0
KES1 180353Z 21006KT 04/M06 A3003 RMK A01 T00361060  RH  049%=      5-min Rain = 0
KES1 180354Z 21006KT 04/M06 A3003 RMK A01 T00361060  RH  049%=      5-min Rain = 0
KES1 180355Z 21006KT 04/M06 A3003 RMK A01 T00361060  RH  050%=      5-min Rain = 0
KES1 180356Z 21006KT 04/M06 A3003 RMK A01 T00361060  RH  050%=      5-min Rain = 0
KES1 180357Z 20006KT 04/M06 A3003 RMK A01 T00351060  RH  050%=      5-min Rain = 0
KES1 180358Z 20006KT 04/M06 A3003 RMK A01 T00351060  RH  050%=      5-min Rain = 0
KES1 180359Z 20007KT 03/M06 A3003 RMK A01 T00341060  RH  050%=      5-min Rain = 0
KES1 180400Z 20007KT 04/M06 A3003 RMK A01 T00351060  RH  050%=      5-min Rain = 0
KES1 180401Z 20007KT 04/M06 A3003 RMK A01 T00351059  RH  050%=      5-min Rain = 0
KES1 180402Z 20007KT 04/M06 A3003 RMK A01 T00361059  RH  050%=      5-min Rain = 0
KES1 180403Z 20007KT 04/M06 A3003 RMK A01 T00371059  RH  050%=      5-min Rain = 0
KES1 180404Z 20006KT 04/M06 A3003 RMK A01 T00371059  RH  049%=      5-min Rain = 0
KES1 180405Z 20006KT 04/M06 A3003 RMK A01 T00371059  RH  049%=      5-min Rain = 0
KES1 180406Z 21006KT 04/M06 A3003 RMK A01 T00371059  RH  050%=      5-min Rain = 0
KES1 180407Z 21007KT 04/M06 A3003 RMK A01 T00371059  RH  050%=      5-min Rain = 0
KES1 180408Z 21007KT 04/M06 A3003 RMK A01 T00371059  RH  050%=      5-min Rain = 0
KES1 180409Z 21007KT 04/M06 A3003 RMK A01 T00371059  RH  050%=      5-min Rain = 0
KES1 180410Z 21008KT 04/M06 A3002 RMK A01 T00361059  RH  050%=      5-min Rain = 0
KES1 180411Z 21008KT 04/M06 A3002 RMK A01 T00371058  RH  050%=      5-min Rain = 0
KES1 180412Z 21008KT 04/M06 A3002 RMK A01 T00361059  RH  050%=      5-min Rain = 0
KES1 180413Z 21008KT 04/M06 A3002 RMK A01 T00361059  RH  050%=      5-min Rain = 0
KES1 180414Z 21008KT 04/M06 A3002 RMK A01 T00361058  RH  050%=      5-min Rain = 0
KES1 180415Z 21007KT 04/M06 A3002 RMK A01 T00361058  RH  050%=      5-min Rain = 0
KES1 180416Z 21007KT 04/M06 A3002 RMK A01 T00351058  RH  050%=      5-min Rain = 0
KES1 180417Z 20007KT 04/M06 A3002 RMK A01 T00361058  RH  050%=      5-min Rain = 0
KES1 180418Z 21007KT 04/M06 A3002 RMK A01 T00361058  RH  050%=      5-min Rain = 0
KES1 180419Z 20007KT 04/M06 A3002 RMK A01 T00361058  RH  050%=      5-min Rain = 0
KES1 180420Z 20007KT 04/M06 A3002 RMK A01 T00361058  RH  050%=      5-min Rain = 0
KES1 180421Z 20006KT 04/M06 A3002 RMK A01 T00361057  RH  050%=      5-min Rain = 0
KES1 180422Z 20007KT 04/M06 A3002 RMK A01 T00361057  RH  050%=      5-min Rain = 0
KES1 180423Z 20006KT 04/M06 A3002 RMK A01 T00371057  RH  050%=      5-min Rain = 0
KES1 180424Z 19007KT 04/M06 A3002 RMK A01 T00371057  RH  050%=      5-min Rain = 0
KES1 180425Z 20007KT 04/M06 A3002 RMK A01 T00371056  RH  051%=      5-min Rain = 0
KES1 180426Z 20006KT 04/M06 A3002 RMK A01 T00381056  RH  050%=      5-min Rain = 0
KES1 180427Z 20006KT 04/M06 A3002 RMK A01 T00381056  RH  050%=      5-min Rain = 0
KES1 180428Z 20006KT 04/M06 A3002 RMK A01 T00391056  RH  050%=      5-min Rain = 0
KES1 180429Z 20006KT 04/M06 A3002 RMK A01 T00391055  RH  050%=      5-min Rain = 0
KES1 180430Z 20006KT 04/M06 A3002 RMK A01 T00391055  RH  050%=      5-min Rain = 0
KES1 180431Z 21006KT 04/M06 A3002 RMK A01 T00401055  RH  050%=      5-min Rain = 0
KES1 180432Z 21005KT 04/M06 A3002 RMK A01 T00401055  RH  050%=      5-min Rain = 0
KES1 180433Z 21006KT 04/M06 A3002 RMK A01 T00401055  RH  050%=      5-min Rain = 0
KES1 180434Z 21005KT 04/M06 A3002 RMK A01 T00391055  RH  050%=      5-min Rain = 0
KES1 180435Z 21007KT 04/M06 A3002 RMK A01 T00381055  RH  051%=      5-min Rain = 0
KES1 180436Z 21007KT 04/M06 A3002 RMK A01 T00371055  RH  051%=      5-min Rain = 0
KES1 180437Z 21007KT 04/M06 A3002 RMK A01 T00361055  RH  051%=      5-min Rain = 0
KES1 180438Z 21008KT 04/M06 A3002 RMK A01 T00361055  RH  052%=      5-min Rain = 0
KES1 180439Z 20008KT 04/M05 A3002 RMK A01 T00361054  RH  052%=      5-min Rain = 0
KES1 180440Z 20007KT 04/M05 A3001 RMK A01 T00361054  RH  052%=      5-min Rain = 0
KES1 180441Z 20008KT 04/M05 A3001 RMK A01 T00351054  RH  052%=      5-min Rain = 0
KES1 180442Z 19008KT 04/M05 A3001 RMK A01 T00351054  RH  052%=      5-min Rain = 0
KES1 180443Z 20008KT 04/M05 A3001 RMK A01 T00361053  RH  052%=      5-min Rain = 0
KES1 180444Z 19008KT 04/M05 A3001 RMK A01 T00371053  RH  052%=      5-min Rain = 0
KES1 180445Z 20009KT 04/M05 A3001 RMK A01 T00371053  RH  052%=      5-min Rain = 0
KES1 180446Z 19008KT 04/M05 A3001 RMK A01 T00371053  RH  052%=      5-min Rain = 0
KES1 180447Z 20008KT 04/M05 A3001 RMK A01 T00381052  RH  052%=      5-min Rain = 0
KES1 180448Z 20008KT 04/M05 A3001 RMK A01 T00381052  RH  052%=      5-min Rain = 0
KES1 180449Z 19008KT 04/M05 A3001 RMK A01 T00381052  RH  052%=      5-min Rain = 0
KES1 180450Z 19009KT 04/M05 A3001 RMK A01 T00381052  RH  052%=      5-min Rain = 0
KES1 180451Z 20008KT 04/M05 A3001 RMK A01 T00391051  RH  052%=      5-min Rain = 0
KES1 180452Z 20007KT 04/M05 A3001 RMK A01 T00401051  RH  051%=      5-min Rain = 0
KES1 180453Z 20006KT 04/M05 A3001 RMK A01 T00401051  RH  051%=      5-min Rain = 0
KES1 180454Z 20007KT 04/M05 A3001 RMK A01 T00401051  RH  051%=      5-min Rain = 0
KES1 180455Z 21007KT 04/M05 A3001 RMK A01 T00401051  RH  052%=      5-min Rain = 0
KES1 180456Z 21007KT 04/M05 A3001 RMK A01 T00391051  RH  052%=      5-min Rain = 0
KES1 180457Z 21006KT 04/M05 A3001 RMK A01 T00391051  RH  052%=      5-min Rain = 0
KES1 180458Z 21007KT 04/M05 A3001 RMK A01 T00391051  RH  052%=      5-min Rain = 0
KES1 180459Z 20007KT 04/M05 A3001 RMK A01 T00381051  RH  052%=      5-min Rain = 0
KES1 180500Z 20007KT 04/M05 A3001 RMK A01 T00381051  RH  052%=      5-min Rain = 0
KES1 180501Z 19007KT 04/M05 A3001 RMK A01 T00381050  RH  053%=      5-min Rain = 0
KES1 180502Z 20007KT 04/M05 A3001 RMK A01 T00381050  RH  053%=      5-min Rain = 0
KES1 180503Z 21006KT 04/M05 A3001 RMK A01 T00371050  RH  053%=      5-min Rain = 0
KES1 180504Z 20006KT 04/M05 A3001 RMK A01 T00371050  RH  053%=      5-min Rain = 0
KES1 180505Z 20006KT 04/M05 A3001 RMK A01 T00371050  RH  053%=      5-min Rain = 0
KES1 180506Z 20007KT 04/M05 A3001 RMK A01 T00361050  RH  053%=      5-min Rain = 0
KES1 180507Z 20007KT 04/M05 A3001 RMK A01 T00361051  RH  053%=      5-min Rain = 0
KES1 180508Z 21007KT 04/M05 A3001 RMK A01 T00351051  RH  053%=      5-min Rain = 0
KES1 180509Z 20007KT 03/M05 A3001 RMK A01 T00341051  RH  054%=      5-min Rain = 0
KES1 180510Z 21007KT 03/M05 A30 RMK A01 T00331051  RH  054%=      5-min Rain = 0
KES1 180511Z 20006KT 03/M05 A30 RMK A01 T00321051  RH  054%=      5-min Rain = 0
KES1 180512Z 20007KT 03/M05 A30 RMK A01 T00321051  RH  055%=      5-min Rain = 0
KES1 180513Z 20006KT 03/M05 A30 RMK A01 T00311051  RH  055%=      5-min Rain = 0
KES1 180514Z 20006KT 03/M05 A30 RMK A01 T00311051  RH  055%=      5-min Rain = 0
KES1 180515Z 20006KT 03/M05 A30 RMK A01 T00301051  RH  055%=      5-min Rain = 0
KES1 180516Z 21005KT 03/M05 A30 RMK A01 T00291051  RH  056%=      5-min Rain = 0
KES1 180517Z 21006KT 03/M05 A30 RMK A01 T00281051  RH  056%=      5-min Rain = 0
KES1 180518Z 21006KT 03/M05 A30 RMK A01 T00271051  RH  056%=      5-min Rain = 0
KES1 180519Z 21007KT 03/M05 A30 RMK A01 T00271051  RH  056%=      5-min Rain = 0
KES1 180520Z 20007KT 03/M05 A30 RMK A01 T00271052  RH  056%=      5-min Rain = 0
KES1 180521Z 21007KT 03/M05 A30 RMK A01 T00271052  RH  056%=      5-min Rain = 0
KES1 180522Z 20007KT 03/M05 A30 RMK A01 T00281051  RH  056%=      5-min Rain = 0
KES1 180523Z 20007KT 03/M05 A30 RMK A01 T00281052  RH  056%=      5-min Rain = 0
KES1 180524Z 21007KT 03/M05 A30 RMK A01 T00281051  RH  056%=      5-min Rain = 0
KES1 180525Z 20007KT 03/M05 A30 RMK A01 T00291051  RH  056%=      5-min Rain = 0
KES1 180526Z 20007KT 03/M05 A30 RMK A01 T00281051  RH  056%=      5-min Rain = 0
KES1 180527Z 20007KT 03/M05 A30 RMK A01 T00281051  RH  056%=      5-min Rain = 0
KES1 180528Z 19007KT 03/M05 A2999 RMK A01 T00281051  RH  056%=      5-min Rain = 0
KES1 180529Z 20007KT 03/M05 A2999 RMK A01 T00281051  RH  056%=      5-min Rain = 0
KES1 180530Z 20007KT 03/M05 A2999 RMK A01 T00281051  RH  056%=      5-min Rain = 0
KES1 180531Z 20007KT 03/M05 A2999 RMK A01 T00281051  RH  056%=      5-min Rain = 0
KES1 180532Z 20007KT 03/M05 A2999 RMK A01 T00281051  RH  056%=      5-min Rain = 0
KES1 180533Z 21007KT 03/M05 A2999 RMK A01 T00271051  RH  056%=      5-min Rain = 0
KES1 180534Z 21007KT 03/M05 A2999 RMK A01 T00271051  RH  057%=      5-min Rain = 0
KES1 180535Z 21007KT 03/M05 A2999 RMK A01 T00271051  RH  057%=      5-min Rain = 0
KES1 180536Z 21007KT 03/M05 A2999 RMK A01 T00261051  RH  057%=      5-min Rain = 0
KES1 180537Z 21008KT 03/M05 A2999 RMK A01 T00251051  RH  057%=      5-min Rain = 0
KES1 180538Z 20007KT 03/M05 A2999 RMK A01 T00251051  RH  057%=      5-min Rain = 0
KES1 180539Z 20007KT 03/M05 A2999 RMK A01 T00261050  RH  057%=      5-min Rain = 0
KES1 180540Z 20007KT 03/M05 A2999 RMK A01 T00261050  RH  057%=      5-min Rain = 0
KES1 180541Z 21007KT 03/M05 A2999 RMK A01 T00261050  RH  057%=      5-min Rain = 0
KES1 180542Z 20008KT 03/M05 A2999 RMK A01 T00271050  RH  057%=      5-min Rain = 0
KES1 180543Z 20008KT 03/M05 A2999 RMK A01 T00281049  RH  057%=      5-min Rain = 0
KES1 180544Z 19008KT 03/M05 A2999 RMK A01 T00271049  RH  057%=      5-min Rain = 0
KES1 180545Z 19008KT 03/M05 A2999 RMK A01 T00271049  RH  057%=      5-min Rain = 0
KES1 180546Z 19008KT 03/M05 A2999 RMK A01 T00271049  RH  057%=      5-min Rain = 0
KES1 180547Z 19008KT 03/M05 A2999 RMK A01 T00261049  RH  057%=      5-min Rain = 0
KES1 180548Z 19007KT 03/M05 A2999 RMK A01 T00261049  RH  058%=      5-min Rain = 0
KES1 180549Z 19007KT 03/M05 A2999 RMK A01 T00251050  RH  058%=      5-min Rain = 0
KES1 180550Z 19007KT 03/M05 A2999 RMK A01 T00251049  RH  058%=      5-min Rain = 0
KES1 180551Z 19007KT 03/M05 A2999 RMK A01 T00251049  RH  058%=      5-min Rain = 0
KES1 180552Z 19008KT 03/M05 A2999 RMK A01 T00251049  RH  058%=      5-min Rain = 0
KES1 180553Z 20007KT 03/M05 A2999 RMK A01 T00251049  RH  058%=      5-min Rain = 0
KES1 180554Z 20008KT 03/M05 A2999 RMK A01 T00251049  RH  058%=      5-min Rain = 0
KES1 180555Z 20008KT 03/M05 A2999 RMK A01 T00251048  RH  058%=      5-min Rain = 0
KES1 180556Z 20009KT 02/M05 A2998 RMK A01 T00241049  RH  059%=      5-min Rain = 0
KES1 180557Z 20008KT 02/M05 A2998 RMK A01 T00241049  RH  059%=      5-min Rain = 0
KES1 180558Z 20009KT 02/M05 A2998 RMK A01 T00241048  RH  059%=      5-min Rain = 0
KES1 180559Z 20008KT 03/M05 A2998 RMK A01 T00251047  RH  059%=      5-min Rain = 0

Page generated in 0.1133 seconds.